GFSGBSN_850_spd_000.txt.gz
Wind_Speed
19 18 16 15 15 14 15 15 18 19 18 19 18 17 14 12 12 11 12 12 11 11 12 9 4 4 5 6 10 6 3 2 7 12 14 14 11 10 6 5 6 7 5 10 13 12 9
20 17 16 14 14 14 14 15 16 15 16 16 15 14 12 10 11 10 11 12 11 11 10 6 4 5 6 5 3 6 5 4 7 8 8 12 12 9 12 11 7 9 16 10 9 7 5
19 17 15 14 13 12 13 13 12 11 12 11 11 11 9 9 10 11 12 12 12 11 8 4 4 6 9 13 5 2 6 9 6 6 7 8 1 7 2 7 22 23 6 4 3 5 3
19 18 15 14 13 10 12 10 8 8 9 8 9 8 8 9 11 12 12 13 12 9 4 3 4 5 8 4 6 4 4 3 0 4 4 5 1 2 7 10 5 5 6 3 4 6 2
19 18 15 14 12 10 9 7 6 6 6 6 6 6 9 11 12 14 14 13 8 4 3 2 3 5 9 6 6 3 2 5 3 3 3 4 3 5 6 4 5 7 3 3 3 11 3
19 18 16 14 12 10 8 5 5 4 4 4 3 6 11 14 15 15 13 9 5 3 4 5 2 2 9 5 6 9 6 3 3 2 6 6 7 4 5 5 3 5 4 5 7 6 4
21 19 16 14 12 9 6 5 4 2 2 2 5 9 13 16 16 15 12 8 3 2 9 7 3 6 5 9 6 9 6 3 1 0 1 7 6 3 3 4 4 3 3 7 3 5 5
23 20 17 14 14 9 7 6 5 3 4 5 8 11 15 18 15 13 11 2 5 4 6 14 10 11 8 4 4 10 6 1 0 2 3 6 2 3 4 5 6 3 7 5 5 7 7
24 21 18 16 14 9 9 9 7 6 6 8 11 13 16 14 11 10 9 6 5 4 3 1 2 4 2 2 4 5 1 2 3 2 3 6 5 2 5 6 7 5 7 3 3 2 9
26 22 19 17 14 10 11 11 10 8 8 10 14 14 13 11 6 6 6 4 3 4 4 4 2 2 1 4 3 2 0 1 5 8 6 5 7 5 5 4 1 2 3 4 3 3 6
27 23 21 18 14 12 13 13 12 10 10 11 13 14 13 11 3 2 3 4 3 3 4 4 1 6 2 1 6 1 3 2 0 3 6 4 4 6 5 0 1 3 2 2 2 3 3
27 25 22 19 15 13 14 15 14 13 12 12 12 12 10 6 1 3 4 3 2 6 2 3 5 4 2 0 2 5 2 4 4 6 6 4 3 3 1 3 1 1 1 6 4 3 3
29 26 22 19 17 14 15 17 16 15 14 13 11 12 9 5 3 2 4 3 5 5 2 4 4 4 4 2 2 4 5 6 4 5 3 5 4 5 5 4 6 8 5 3 4 4 4
30 26 22 20 17 14 15 18 19 17 17 15 12 13 9 5 3 4 5 5 2 3 4 3 5 4 4 3 5 3 3 4 6 4 3 3 4 4 6 2 1 3 5 5 4 2 2
29 25 23 20 17 14 16 18 21 20 19 17 14 12 8 6 3 4 1 3 6 5 4 6 5 5 2 2 6 6 4 2 2 1 5 4 1 2 0 2 1 3 4 4 6 4 3
29 26 23 19 16 14 15 18 22 22 21 19 16 12 10 8 4 3 4 5 3 2 3 5 6 5 4 5 4 4 2 3 3 7 2 2 4 2 3 5 6 6 2 4 4 2 1
29 26 23 19 16 14 15 18 22 23 23 21 17 9 11 12 6 1 3 5 2 6 8 4 2 4 6 7 5 3 3 3 5 5 7 2 4 4 4 3 1 5 3 5 4 3 4
29 26 22 19 16 14 14 18 23 24 26 24 17 3 16 13 3 0 2 4 2 3 5 5 4 4 4 4 5 3 3 3 9 3 2 2 5 3 1 3 1 2 3 4 4 2 2
29 25 21 18 16 14 14 18 22 26 30 26 16 5 14 16 3 2 5 4 3 2 2 2 2 4 3 4 6 3 4 4 9 4 2 2 2 3 6 4 6 4 2 5 6 3 3
28 25 21 18 16 14 14 18 23 29 32 24 9 2 4 8 4 5 3 1 2 6 3 5 4 6 5 5 6 4 3 3 5 4 3 2 3 5 6 4 3 1 2 4 5 4 4
27 23 20 18 16 14 14 17 22 29 32 20 5 4 10 3 4 4 3 3 3 2 2 5 4 3 5 4 3 4 3 2 4 2 3 3 4 2 2 4 1 1 2 1 4 4 5
26 23 20 18 16 14 14 15 20 27 30 17 3 4 10 10 16 5 5 6 9 3 3 1 2 4 7 5 6 7 7 3 4 1 3 5 2 1 1 5 6 3 5 5 4 4 4
26 23 20 18 16 14 13 14 18 24 27 11 7 6 11 1 6 4 4 6 8 9 2 3 15 7 10 2 15 18 12 11 8 5 3 4 4 3 3 5 6 5 5 3 2 4 3
25 23 20 17 16 14 14 13 15 21 25 12 8 3 5 2 4 6 3 5 6 2 8 7 13 7 11 22 23 22 26 23 21 14 5 5 4 3 2 4 1 5 5 4 9 3 11
25 22 19 17 15 14 14 14 14 20 19 15 7 2 4 1 1 1 8 13 20 22 9 8 4 12 22 7 5 5 5 7 5 7 7 5 4 3 3 3 5 6 5 6 5 3 4
25 21 19 17 15 14 14 14 15 16 16 11 8 7 4 9 4 3 10 18 6 4 5 7 17 10 5 6 4 4 4 4 2 1 7 6 6 4 3 4 6 6 2 9 8 4 17
25 21 18 17 15 14 14 14 13 13 13 12 11 10 6 6 4 13 7 8 12 7 4 3 4 4 4 3 3 3 3 4 5 6 4 3 3 5 3 2 8 7 10 4 5 7 24
24 21 18 16 15 14 14 14 13 12 12 13 12 10 7 6 7 7 14 15 16 12 5 10 5 2 4 4 3 4 3 5 3 4 6 7 6 4 3 2 7 13 6 7 6 11 21
23 20 18 16 14 14 13 13 13 13 13 14 14 10 8 5 9 14 14 15 12 12 16 17 7 6 8 4 1 3 1 1 3 3 3 2 7 5 9 7 6 18 11 15 13 14 18

GFSGBSN_850_spd_003.txt.gz
Wind_Speed
25 24 22 20 20 17 18 17 18 19 21 20 20 19 18 16 14 14 13 13 14 12 9 6 5 6 7 6 8 4 4 4 7 9 13 15 15 13 5 6 4 4 3 3 12 12 13
26 23 21 19 18 17 17 16 16 18 19 19 18 17 15 13 13 12 12 12 11 9 7 6 5 7 6 5 1 7 5 4 6 11 12 16 12 14 5 9 9 8 3 8 10 13 10
25 23 20 19 18 17 16 15 15 16 16 16 15 14 13 12 12 10 10 10 8 7 7 5 5 7 9 13 5 8 3 4 4 4 4 6 10 14 7 4 11 15 5 4 2 4 3
26 24 21 18 18 16 16 14 13 13 13 15 13 12 10 10 10 8 9 7 7 7 5 5 5 6 8 4 7 1 1 3 1 2 0 3 3 5 2 18 6 5 5 3 5 3 2
27 24 21 19 18 16 14 13 12 11 12 13 11 10 8 8 9 8 8 8 7 5 4 4 4 4 8 6 4 2 1 2 3 3 0 0 3 6 7 5 5 6 3 2 3 7 2
29 25 22 20 18 16 13 13 11 11 10 11 10 8 7 9 9 10 11 9 6 4 5 4 1 3 8 2 5 7 3 2 3 5 6 6 5 4 4 5 4 3 3 3 6 5 5
31 27 24 21 19 17 14 12 11 9 8 8 7 7 8 10 12 14 11 7 2 2 10 7 3 5 7 5 6 10 5 4 4 6 4 5 6 2 4 1 4 2 3 6 4 3 9
33 28 26 22 20 17 14 13 11 8 7 6 6 8 11 15 17 13 11 2 2 2 4 14 15 14 10 5 5 9 2 2 5 2 2 7 2 0 6 5 2 5 4 2 8 10 12
34 30 27 24 21 18 15 15 12 9 8 8 10 14 15 16 15 12 9 5 5 4 1 2 3 4 3 4 4 4 2 1 3 1 2 5 2 3 5 6 5 4 1 3 8 10 8
35 32 29 25 22 19 17 17 14 11 10 11 13 16 15 13 10 6 2 1 3 5 4 5 2 3 2 6 3 4 3 2 4 5 7 6 5 5 5 5 2 3 2 4 10 6 5
36 33 30 27 23 21 20 18 16 13 12 13 15 17 15 12 6 5 2 3 3 1 4 4 3 2 3 2 4 3 5 2 4 4 5 3 2 5 5 1 2 3 2 2 4 4 5
38 35 32 28 25 23 22 20 18 16 15 15 17 17 15 5 6 4 2 2 1 6 2 1 3 2 3 3 1 4 5 8 6 6 7 3 1 3 1 0 0 3 4 6 4 3 3
39 36 33 29 26 24 23 22 21 19 17 16 16 16 13 7 5 3 4 2 5 4 1 4 4 3 2 1 5 4 4 5 4 5 3 5 4 5 2 2 2 5 5 3 3 3 4
40 37 33 30 27 25 24 24 23 21 19 18 16 16 12 8 5 3 3 5 1 3 5 2 4 3 4 4 3 4 3 3 5 4 3 3 4 4 5 2 1 3 4 5 5 3 2
42 38 34 30 28 25 24 26 25 23 21 19 19 16 13 8 5 1 1 3 6 5 3 6 4 3 2 2 5 5 3 2 2 2 5 4 1 3 1 2 2 1 4 3 6 3 3
42 38 33 30 28 25 25 26 27 25 24 22 20 17 13 9 5 1 4 5 4 4 1 4 5 4 5 4 4 4 1 2 1 4 2 5 4 2 4 3 5 5 4 4 4 3 1
42 37 33 31 27 25 24 27 28 26 26 24 21 11 14 11 8 2 3 5 4 5 1 2 5 4 4 6 4 2 1 2 2 4 5 3 3 4 2 3 1 4 2 6 5 3 4
42 36 33 29 27 25 24 27 29 29 29 27 21 2 15 15 4 1 3 4 5 2 5 4 4 3 4 4 4 3 4 1 4 1 2 1 5 3 1 5 3 1 3 4 4 3 1
41 36 32 28 27 24 23 27 29 31 32 30 16 4 15 18 4 2 5 4 1 1 3 2 3 2 2 5 6 2 3 0 3 3 3 2 2 3 6 6 5 2 2 5 6 3 4
39 35 30 28 25 23 23 27 30 33 34 28 13 2 4 9 5 7 3 4 1 3 2 3 3 5 5 5 6 4 2 2 2 4 5 3 3 5 6 5 3 3 2 3 4 3 3
38 33 30 27 24 22 23 27 30 35 37 24 9 5 9 3 3 4 6 2 3 2 1 3 4 3 5 4 3 3 2 1 4 3 4 4 3 1 3 4 1 1 3 5 6 4 6
36 32 29 26 23 21 22 25 31 36 37 21 8 5 6 6 20 6 3 6 7 2 3 1 6 1 2 6 6 8 6 2 2 6 4 5 3 1 1 6 6 3 5 6 5 3 5
35 31 28 24 22 20 21 24 30 36 36 19 7 4 6 2 6 6 5 6 8 6 6 2 11 5 5 2 7 11 8 11 7 5 3 4 5 3 3 4 5 6 7 6 4 2 6
33 30 26 24 21 20 20 22 27 33 37 23 9 5 5 2 3 6 6 4 6 5 7 4 8 6 14 31 28 24 26 23 21 14 5 5 4 3 2 3 2 5 5 6 4 1 3
32 28 24 23 21 20 19 22 25 30 31 22 12 6 7 2 3 4 8 7 15 14 6 4 2 11 24 6 5 5 5 6 5 6 6 4 5 3 4 3 5 5 5 6 6 7 6
30 26 24 22 21 19 19 22 25 27 27 22 15 9 3 15 3 13 7 10 5 4 5 5 18 27 4 6 4 4 4 4 2 1 5 5 6 4 2 4 6 6 3 6 5 5 19
28 25 23 21 19 18 19 20 22 28 28 23 14 7 4 7 6 14 5 8 11 7 4 4 5 3 3 3 3 3 3 3 4 5 4 2 3 4 2 3 8 7 5 4 5 7 23
27 24 22 20 18 17 18 18 19 27 22 23 12 10 7 6 8 10 12 15 12 10 5 10 5 1 4 4 3 4 3 5 2 4 5 7 6 4 3 1 8 11 5 7 6 7 21
26 23 20 18 17 16 17 17 18 20 20 18 16 11 9 7 8 12 12 13 11 13 15 17 5 6 7 4 1 3 2 1 3 3 2 3 7 5 9 6 4 20 8 22 9 11 19

GFSGBSN_850_spd_006.txt.gz
Wind_Speed
29 28 27 25 23 21 20 19 19 19 19 20 20 20 20 19 19 17 16 13 12 10 7 7 6 5 6 6 8 7 1 7 11 14 15 16 14 9 5 7 6 4 3 2 9 9 14
29 28 28 25 23 20 20 18 18 19 19 19 18 18 18 17 17 14 13 10 8 6 6 7 5 4 5 5 2 4 6 6 11 14 19 18 10 16 9 4 6 9 4 4 3 14 11
31 29 28 24 22 20 19 18 18 18 18 16 16 16 16 15 13 11 10 7 5 5 6 5 4 6 9 13 4 11 7 4 8 10 15 16 19 12 7 2 5 9 5 5 6 4 4
32 30 28 25 22 20 20 17 17 17 17 15 15 14 13 12 9 8 6 5 5 6 6 4 5 6 8 3 7 4 2 3 4 5 8 10 8 16 7 9 6 6 6 4 3 3 3
34 32 29 26 23 21 20 17 17 16 15 14 14 12 11 8 6 5 5 6 7 6 4 4 4 5 8 3 4 2 2 3 2 2 2 5 10 5 7 5 5 6 3 2 1 3 3
35 34 31 27 24 22 20 18 16 15 14 13 13 10 9 6 6 7 9 8 6 4 5 3 4 3 7 1 6 4 3 5 1 1 2 4 4 4 4 5 4 5 3 1 4 1 12
37 35 33 28 26 23 21 18 15 14 13 12 11 7 7 8 10 11 12 8 2 2 10 7 2 3 8 6 5 4 4 4 4 5 2 6 8 4 3 4 4 4 4 3 3 4 8
39 37 35 30 28 25 22 18 15 14 13 11 8 7 10 12 15 14 12 4 1 1 4 15 15 14 12 5 2 6 2 1 4 3 1 7 4 2 3 3 5 5 6 4 3 4 9
41 39 36 31 31 26 23 19 16 14 12 11 8 10 14 15 14 15 10 2 2 5 2 2 3 4 1 7 4 5 3 2 2 3 5 5 2 2 1 5 6 4 5 3 5 10 6
44 41 37 33 32 28 24 20 17 15 12 12 11 15 16 16 11 9 6 1 2 2 4 5 1 1 2 5 4 3 2 2 4 5 5 4 3 4 5 6 4 3 1 5 8 4 4
48 43 38 35 34 30 26 22 19 17 14 13 15 18 18 16 6 8 2 1 1 0 4 4 3 1 3 3 8 2 6 2 4 4 5 3 2 5 7 1 3 3 6 6 3 5 5
50 44 39 38 35 32 28 24 21 19 16 16 19 20 19 11 8 5 2 3 3 6 3 2 2 1 3 3 2 3 5 10 6 6 6 3 3 4 1 3 2 4 6 6 4 3 2
48 45 40 39 37 33 29 26 23 21 19 18 21 21 19 10 8 4 5 2 5 4 1 3 3 2 3 5 5 4 5 6 3 5 4 6 4 4 2 3 3 6 5 3 3 3 4
47 46 42 40 39 35 30 28 26 24 21 20 21 20 16 10 7 5 3 5 1 3 5 1 3 3 4 3 4 5 3 3 5 5 3 4 5 3 4 2 4 3 5 5 6 3 3
50 46 42 42 40 35 31 29 28 26 24 23 21 20 14 11 9 7 3 4 6 6 3 5 4 4 1 2 5 4 3 2 1 2 5 4 1 3 2 1 3 2 3 3 7 3 3
51 46 43 42 40 36 31 30 30 28 27 24 24 19 15 13 10 7 5 4 3 4 2 3 4 3 4 3 3 3 1 1 2 2 3 5 3 2 3 2 7 2 5 3 3 3 2
52 46 44 42 39 35 31 31 31 29 28 25 22 11 16 14 11 6 4 5 5 7 4 3 5 4 3 4 3 2 2 1 1 3 3 3 4 4 1 3 2 2 2 6 5 3 4
51 47 46 42 38 35 31 31 33 32 31 29 16 3 17 16 5 1 4 4 4 4 1 2 4 3 4 3 4 3 5 2 2 1 3 1 5 2 2 2 2 1 3 4 4 3 1
49 47 45 42 38 33 31 32 33 34 34 31 15 5 15 18 4 2 2 2 4 3 2 2 3 3 3 4 5 2 3 1 2 1 5 5 2 3 6 5 4 2 3 4 6 3 4
48 48 45 41 37 32 31 31 33 36 36 28 14 2 3 7 4 8 4 3 4 2 1 3 4 5 4 3 5 5 3 2 2 3 6 4 3 5 6 4 2 3 4 4 5 3 3
48 46 43 39 35 32 30 31 35 37 38 27 11 4 7 3 1 5 5 2 3 2 2 4 4 3 5 4 3 3 2 2 4 2 4 4 4 2 2 4 2 1 4 6 6 5 6
47 44 40 37 32 30 29 31 36 40 40 23 11 6 5 3 18 7 5 7 6 1 2 1 5 2 2 5 6 8 6 3 4 4 3 4 3 0 0 4 5 3 5 6 4 4 7
45 41 37 34 30 29 29 32 38 41 41 17 11 9 10 1 4 6 6 6 8 5 3 1 6 5 4 1 6 14 11 12 6 5 3 3 5 3 4 3 5 6 8 9 5 4 6
41 37 35 31 29 28 29 32 37 42 43 20 15 11 5 2 3 6 7 6 6 5 7 3 6 5 9 28 27 22 24 22 21 13 5 4 4 3 2 3 2 6 2 4 5 4 6
37 34 31 29 27 26 26 29 35 41 42 23 14 8 6 2 5 4 6 6 13 8 4 4 3 7 25 5 5 5 5 6 5 6 7 5 4 3 4 3 5 5 5 7 8 8 9
33 31 29 27 24 24 25 29 33 39 40 25 15 8 4 12 7 12 6 7 5 4 4 4 10 29 2 5 4 4 3 4 3 2 4 5 5 4 3 4 6 7 3 5 4 5 13
31 29 27 25 23 23 25 28 32 36 39 25 17 10 6 5 9 15 5 8 9 6 4 6 9 3 2 3 3 3 3 2 3 4 2 3 3 4 2 3 8 7 3 5 5 7 12
30 27 25 23 22 22 23 26 30 34 32 20 21 11 8 5 12 10 9 13 12 9 5 11 5 1 4 4 3 4 3 5 2 4 6 7 6 4 3 2 8 8 4 7 6 6 14
27 25 24 21 21 21 22 21 27 32 26 30 17 11 9 7 8 10 9 10 6 9 15 20 6 6 7 4 1 4 2 2 2 3 2 2 6 4 9 6 4 15 7 15 5 7 12

GFSGBSN_850_spd_009.txt.gz
Wind_Speed
27 27 27 26 26 21 20 20 19 18 19 18 19 19 20 19 20 16 14 12 10 7 6 6 6 6 8 7 7 8 5 10 13 15 14 16 15 8 5 5 6 4 4 5 5 8 15
31 28 28 27 26 20 20 18 18 18 19 17 18 17 19 18 17 13 11 9 6 4 5 5 4 6 8 4 1 1 8 7 13 16 17 17 8 12 3 3 5 4 6 6 5 13 16
33 30 28 27 26 21 19 18 17 18 18 16 16 16 17 17 15 10 7 5 5 4 5 4 4 8 11 11 3 10 7 2 10 11 15 17 15 7 3 3 4 8 6 6 6 5 4
34 33 30 28 25 22 19 18 17 18 18 15 14 15 15 15 12 7 5 5 5 5 5 4 5 9 8 3 6 7 3 1 4 10 10 10 13 12 4 3 4 3 4 4 1 3 4
33 34 32 29 27 24 20 19 18 18 16 14 13 14 14 13 9 6 5 6 6 6 5 3 5 5 7 2 5 2 1 3 2 3 8 3 11 6 4 4 3 7 4 3 4 11 3
35 35 34 31 28 25 22 21 19 18 15 14 12 13 12 11 8 7 7 8 7 5 5 3 5 2 3 1 4 1 2 2 3 12 11 9 5 3 3 3 5 4 5 2 5 5 11
35 34 35 33 30 27 24 22 21 17 14 13 11 11 11 9 9 9 12 10 3 3 10 7 2 2 2 6 5 2 3 5 3 4 3 1 3 4 3 2 3 5 4 6 3 1 7
35 39 36 35 31 28 26 24 22 17 15 12 10 10 10 12 11 13 14 5 3 1 3 14 16 16 12 6 3 5 1 2 3 3 2 5 4 1 5 4 5 4 6 4 5 2 5
47 37 36 36 32 29 27 25 23 18 16 12 10 10 11 13 14 15 13 5 2 4 1 4 9 7 2 9 5 5 3 3 4 3 3 5 2 2 4 3 5 3 6 4 5 6 6
47 42 35 37 34 31 29 27 24 20 17 13 11 12 14 15 13 11 9 3 3 2 3 4 3 1 4 5 2 4 5 2 4 4 4 5 2 3 4 3 2 4 3 9 13 2 3
49 46 38 38 37 32 30 29 25 22 18 15 14 15 17 19 8 12 4 4 4 4 3 4 3 2 4 4 7 3 2 3 6 5 3 1 2 2 5 1 1 3 8 10 3 4 4
42 45 40 39 40 33 32 31 27 24 20 18 17 19 21 22 10 7 7 5 7 6 3 2 3 2 3 4 3 1 3 7 6 5 5 3 3 2 3 2 4 10 6 6 3 2 1
45 45 44 39 42 35 34 33 29 25 22 21 20 23 24 18 10 9 6 8 4 4 2 2 3 2 3 2 4 4 4 4 2 4 4 4 2 2 2 5 3 4 4 2 1 1 3
44 42 45 41 43 37 36 35 31 27 24 23 23 24 24 18 12 7 8 4 3 3 5 1 3 3 4 2 3 4 3 3 5 4 3 3 1 3 4 2 4 2 4 4 5 3 2
42 42 48 44 44 39 37 36 33 29 26 25 25 24 24 17 13 10 6 4 6 6 3 6 3 5 1 2 4 4 3 2 1 1 4 3 1 2 4 1 0 3 2 2 6 2 1
42 43 47 45 45 40 39 38 34 30 28 26 26 22 23 17 16 14 4 5 3 5 2 2 4 2 4 3 3 3 1 1 2 1 1 5 3 1 1 2 7 1 6 3 2 3 3
40 44 43 43 45 41 40 39 36 31 30 27 25 12 19 20 17 10 4 5 5 7 6 5 5 4 3 4 3 2 5 1 1 1 3 3 3 2 1 1 4 3 2 6 4 1 2
39 45 45 44 44 41 41 39 36 35 31 32 20 4 24 21 4 2 4 5 2 4 3 4 4 4 5 3 4 4 6 1 2 2 4 1 4 3 1 1 1 1 3 4 3 4 1
39 39 43 44 43 43 42 39 36 36 35 37 15 6 21 21 4 1 2 2 2 2 1 2 3 3 2 4 4 2 3 2 2 3 5 5 1 3 2 2 1 2 3 4 5 2 5
38 41 48 43 44 44 43 39 36 36 37 34 17 3 5 8 6 9 5 3 2 3 2 3 5 3 4 3 4 5 3 2 2 3 4 3 2 4 7 3 1 4 4 4 3 3 4
34 41 36 43 45 44 42 40 37 37 40 31 11 3 8 3 1 5 4 6 5 2 2 2 3 2 5 4 2 3 2 2 3 3 3 2 4 2 1 1 1 2 5 8 7 4 6
32 33 40 44 45 43 40 39 38 39 43 25 10 7 6 4 18 7 2 6 7 3 1 2 6 3 2 5 5 8 6 4 4 2 2 2 4 2 4 1 3 3 5 7 6 3 9
41 32 41 44 42 40 40 39 38 42 45 15 11 13 16 1 4 6 6 7 8 6 2 4 7 5 3 2 4 9 8 11 6 5 3 2 5 3 3 3 3 5 9 11 6 5 7
31 38 41 41 40 39 38 37 39 42 46 20 17 16 7 2 2 6 8 4 6 7 6 3 6 4 7 27 28 23 25 21 18 12 4 5 4 2 2 1 2 4 2 2 10 6 13
37 39 39 38 36 36 35 35 38 43 44 18 19 18 7 3 5 4 7 5 15 9 4 4 3 7 28 6 4 4 4 5 5 7 7 4 4 3 3 3 5 4 4 6 7 6 12
36 37 36 34 33 32 32 34 38 43 42 18 21 17 8 13 7 14 7 8 5 4 3 4 9 28 4 4 3 4 3 4 1 1 2 4 5 3 3 2 5 5 2 4 3 4 2
34 33 32 31 29 29 29 32 38 43 43 18 17 14 5 4 5 16 7 9 9 6 4 7 11 4 1 2 3 3 3 1 3 4 2 2 3 3 2 3 7 6 1 4 3 4 3
32 30 28 27 26 26 28 32 37 41 45 23 17 11 5 4 14 9 11 15 11 11 5 12 6 2 3 3 3 3 3 4 2 3 5 5 5 3 3 1 6 6 4 5 3 3 6
29 28 26 25 23 23 26 30 35 40 44 25 19 13 6 5 8 11 11 13 10 13 16 23 8 7 8 4 1 3 2 1 2 3 1 3 4 3 7 4 4 12 9 11 8 7 8

GFSGBSN_850_spd_015.txt.gz
Wind_Speed
31 30 28 26 23 21 20 21 20 18 17 18 17 16 16 17 17 18 18 18 16 14 12 10 8 8 7 6 11 6 0 9 16 17 12 12 13 14 10 13 14 10 7 2 2 5 10
39 34 31 30 26 24 21 20 20 17 16 18 17 15 16 16 16 17 17 16 14 12 10 7 7 6 6 11 1 1 3 11 11 13 12 12 7 9 9 12 13 11 7 6 7 7 5
39 40 34 32 30 26 24 21 20 18 18 18 17 14 15 15 16 16 15 14 12 11 8 5 5 6 9 15 0 3 2 8 12 13 11 11 7 7 4 7 5 6 8 11 11 13 8
26 39 39 34 30 29 26 23 20 18 18 19 17 14 14 14 15 15 13 11 10 9 6 4 5 6 9 5 5 8 8 7 12 13 11 6 10 10 9 2 7 10 11 13 13 12 6
30 28 40 39 32 32 29 24 21 19 19 19 17 15 14 14 14 14 11 7 8 7 5 4 4 4 7 6 5 4 10 4 7 11 9 6 7 11 8 11 9 8 7 9 10 13 11
36 32 28 41 37 32 30 26 23 21 20 19 17 15 14 13 13 12 7 4 5 5 6 6 6 6 9 7 3 3 6 8 7 11 8 6 10 8 10 10 8 7 12 14 13 10 12
42 37 31 32 40 36 32 29 25 22 22 19 17 16 15 13 13 9 5 2 3 4 11 13 2 8 3 3 4 5 7 6 9 12 7 7 6 8 7 9 9 13 9 12 14 6 10
45 43 36 32 38 37 34 31 27 23 22 20 17 16 14 13 12 10 11 8 6 4 8 18 18 14 12 4 6 7 6 7 7 10 12 8 16 10 6 5 5 5 6 12 7 9 9
39 40 39 35 36 40 39 33 29 25 23 21 19 17 14 14 12 15 15 16 3 6 7 12 15 12 7 9 12 12 11 13 8 13 12 10 3 5 6 8 8 5 9 11 12 12 14
41 41 37 35 36 39 40 35 32 27 24 22 21 18 16 13 10 10 14 12 9 9 5 11 10 9 8 8 10 5 7 4 4 5 5 3 9 5 3 5 3 10 3 10 3 9 14
45 42 43 39 39 40 40 36 33 29 26 23 22 19 18 13 6 11 4 5 6 4 5 17 14 8 8 12 9 11 7 5 12 6 7 11 10 12 11 3 5 12 7 6 7 12 5
49 45 43 42 39 36 41 38 35 31 27 25 24 21 19 21 22 14 5 5 5 5 7 8 10 11 11 13 8 14 12 8 4 6 11 13 1 3 5 2 3 4 5 6 7 10 7
46 47 45 42 39 39 41 43 37 32 28 27 25 23 24 23 9 11 11 8 6 9 7 12 16 14 15 11 10 11 16 14 11 11 11 9 8 4 6 6 5 9 9 8 8 8 10
40 36 47 41 42 43 40 43 40 32 30 28 26 25 26 25 12 9 11 8 12 14 13 4 15 14 13 10 11 11 16 17 17 13 10 12 9 12 9 10 4 9 13 9 6 6 10
43 37 42 44 40 44 38 47 40 32 32 29 26 24 28 32 24 13 14 10 14 9 11 10 12 13 14 10 6 12 14 16 15 13 13 8 6 6 2 3 7 7 8 7 5 3 7
50 42 39 41 41 43 40 42 43 34 35 33 24 25 30 31 29 12 10 15 20 3 6 12 16 16 15 15 11 14 12 5 6 5 6 1 3 3 5 5 5 8 3 4 5 4 9
38 45 38 41 40 41 41 42 46 37 38 32 21 12 20 28 26 14 12 16 17 10 9 12 17 13 14 13 14 15 10 8 6 8 6 6 7 7 4 10 11 7 10 7 4 2 4
36 45 41 41 39 39 41 41 43 38 39 35 26 11 21 32 17 19 15 22 12 11 10 9 7 9 12 12 13 11 13 6 8 8 10 6 5 5 13 5 5 10 8 10 5 6 2
37 44 40 41 41 38 39 41 40 40 47 39 31 18 21 32 13 13 19 22 14 11 12 12 11 9 9 11 10 12 11 6 6 8 5 6 7 8 7 6 7 9 11 9 4 1 8
37 40 37 39 36 41 37 38 39 42 47 39 29 10 13 19 31 18 24 19 17 9 9 13 11 10 11 8 6 8 8 4 5 5 0 1 11 10 10 6 2 12 13 12 13 7 9
32 30 44 39 38 38 37 34 42 46 48 35 32 14 21 16 21 21 20 19 22 12 11 14 11 15 12 8 9 8 9 6 6 6 6 4 7 12 14 6 6 8 10 13 17 16 13
27 32 37 40 41 37 39 33 42 46 49 32 23 22 28 28 33 20 20 22 23 18 15 14 10 15 12 9 11 10 11 9 7 10 8 5 4 2 5 8 8 11 12 14 14 17 17
29 32 35 39 40 38 40 41 47 51 56 31 24 19 31 26 22 18 17 20 22 15 3 4 11 9 10 6 8 11 9 4 3 7 10 5 4 4 4 3 4 6 16 16 16 16 14
32 34 34 39 35 36 36 48 46 54 58 32 18 18 21 14 17 18 20 19 19 16 11 6 8 9 6 16 17 15 13 10 7 6 5 5 4 2 1 2 1 4 0 5 10 15 17
36 33 34 34 32 35 42 42 48 55 57 38 18 18 14 4 16 25 20 19 20 12 9 12 5 4 21 10 4 5 2 2 3 3 3 3 4 2 3 6 9 10 6 2 4 7 6
31 32 35 33 35 34 40 42 48 55 57 39 11 16 21 11 13 27 19 24 12 11 7 5 10 15 6 2 2 5 4 5 5 6 3 3 1 4 3 3 4 3 4 1 1 6 8
31 32 33 31 33 50 45 38 50 51 53 32 8 17 18 15 20 18 17 17 19 13 6 8 9 5 2 2 2 3 4 2 4 5 4 3 2 6 6 3 5 2 2 2 4 3 6
31 32 32 42 43 37 37 47 51 52 51 26 9 19 18 13 10 9 11 17 22 19 7 12 8 3 3 3 4 3 1 4 2 2 5 6 6 3 3 3 6 6 6 1 4 5 5
30 33 41 36 31 37 42 45 48 52 50 24 9 22 16 10 7 8 12 13 13 15 17 20 6 13 10 5 2 2 2 2 0 3 3 4 4 1 6 2 4 6 4 3 6 8 11

GFSGBSN_850_spd_021.txt.gz
Wind_Speed
22 26 32 32 28 25 25 22 18 18 19 19 19 18 15 14 15 17 19 20 22 21 19 15 11 10 10 7 7 7 8 4 6 10 11 9 10 16 8 7 17 7 4 16 15 23 4
23 23 23 27 33 32 28 25 22 20 20 19 19 19 16 14 15 16 18 19 21 19 16 12 10 9 8 7 3 6 6 1 5 10 7 9 11 13 17 14 7 5 9 24 18 24 16
27 25 24 24 24 33 34 28 23 23 21 20 19 19 17 15 15 16 17 18 18 16 12 10 9 9 11 15 5 8 9 2 6 8 6 6 12 14 19 9 23 8 5 2 14 26 9
31 29 27 25 24 25 32 33 28 24 21 20 19 19 17 15 15 16 16 17 16 12 10 8 6 8 9 2 9 9 10 3 1 5 12 12 13 10 9 15 13 4 3 1 3 20 13
36 34 31 30 27 26 25 32 30 26 23 21 20 19 18 16 16 16 14 15 13 11 9 7 3 6 11 4 10 5 13 9 12 10 7 10 11 3 10 4 5 2 3 3 3 14 6
39 38 36 33 31 28 27 25 31 27 25 22 20 19 19 16 15 15 13 13 11 10 9 9 8 8 11 9 6 4 12 10 11 6 9 7 4 1 4 1 3 3 1 7 9 7 8
42 41 40 39 35 31 30 27 27 28 25 25 20 19 18 16 15 14 12 10 7 2 7 12 5 10 5 7 9 7 10 9 9 8 3 11 2 4 5 4 7 7 6 6 7 9 7
39 39 40 40 40 37 32 29 28 29 28 24 20 20 17 16 15 15 13 8 12 8 11 18 23 28 22 13 4 13 16 10 7 4 0 2 3 1 5 12 9 7 11 11 6 6 4
40 39 41 39 39 40 37 33 31 28 30 24 21 20 17 15 14 15 15 17 8 12 4 14 19 22 20 10 10 18 19 17 5 6 4 3 5 7 7 13 12 1 2 5 5 3 1
43 42 40 38 39 36 39 35 34 30 30 28 24 20 18 11 11 9 7 4 8 5 3 6 13 16 15 21 13 20 19 12 2 1 3 3 8 2 8 14 9 5 2 3 2 2 2
48 45 42 37 37 38 34 35 34 32 32 31 27 21 20 12 7 8 4 3 5 3 3 6 13 7 15 18 2 13 22 19 6 4 3 7 5 5 7 8 4 5 5 1 3 1 4
50 48 44 41 39 39 37 31 31 34 35 31 30 24 21 19 22 8 1 7 6 1 6 3 12 10 11 18 18 20 10 7 18 8 4 7 13 3 4 6 2 6 3 3 4 3 1
48 49 46 42 42 41 40 37 31 33 36 35 32 26 25 21 18 10 9 4 2 4 5 6 15 10 12 8 10 8 8 6 5 4 2 6 8 2 5 6 6 1 4 3 4 5 3
58 49 47 45 43 41 39 38 34 34 33 36 34 26 27 26 19 9 11 2 8 10 11 2 10 11 10 8 9 10 7 8 10 6 4 5 5 4 5 5 5 3 6 4 5 1 5
66 62 49 47 40 46 39 36 38 34 33 36 32 28 30 29 25 11 8 9 8 6 12 4 9 8 9 11 8 9 8 8 10 9 7 4 1 6 9 8 2 4 2 6 6 3 2
51 45 48 43 40 43 42 37 41 35 35 36 31 33 37 30 27 17 6 12 6 16 10 7 8 8 8 12 10 11 9 9 9 12 11 5 3 2 9 20 15 3 3 4 3 5 4
50 44 41 43 44 40 40 38 41 38 38 36 29 18 25 32 27 16 13 10 13 29 18 6 11 8 9 7 16 6 8 9 9 6 12 5 5 5 5 8 9 1 2 3 3 5 4
53 51 45 42 42 45 42 42 42 40 40 37 24 9 20 36 11 10 15 11 13 22 23 14 4 7 8 6 5 9 9 1 11 20 13 12 6 5 13 11 8 4 6 5 5 4 2
56 53 47 46 47 46 42 37 43 44 46 45 14 13 29 41 12 12 7 14 17 21 18 8 2 3 2 5 3 8 3 4 8 3 5 3 0 3 8 5 5 4 5 4 4 3 5
51 49 44 40 44 46 42 41 48 45 49 44 15 9 16 29 32 19 18 17 21 23 21 25 7 8 5 5 15 7 3 1 4 5 6 5 2 6 6 7 3 3 4 5 5 4 3
48 47 45 41 42 42 43 45 50 47 50 46 16 13 16 13 18 15 19 14 19 15 21 17 7 9 7 5 2 7 5 4 3 5 3 5 4 1 3 5 5 2 4 6 5 6 7
46 45 42 41 41 38 39 41 47 49 50 51 12 16 25 6 24 16 20 21 22 19 15 17 8 11 8 5 6 7 8 4 5 1 3 1 1 2 2 6 7 4 7 7 7 5 2
41 41 40 40 38 39 38 43 40 51 52 25 25 24 24 14 18 16 22 23 20 17 16 22 11 5 6 4 10 10 13 17 8 7 5 5 5 3 3 4 6 6 7 6 6 5 3
38 38 38 38 39 40 40 38 44 50 53 24 34 15 11 7 15 23 21 20 26 21 10 18 20 8 13 27 25 24 28 23 17 10 6 5 4 3 3 3 2 8 5 5 5 3 6
36 36 38 38 39 40 41 40 42 48 48 50 33 20 3 3 15 19 22 26 22 22 18 4 3 19 29 8 4 4 5 5 4 4 7 3 4 2 4 3 5 8 4 3 3 5 6
36 35 33 35 38 41 40 43 45 47 38 49 35 16 9 3 17 35 26 27 12 7 3 4 6 29 17 3 4 4 4 6 4 3 7 6 5 4 2 4 6 6 2 4 4 2 7
35 32 31 29 34 40 43 44 45 43 46 43 39 37 16 6 18 30 25 24 25 7 5 10 5 2 9 2 3 3 3 7 6 9 4 3 3 5 2 2 7 6 6 2 6 6 6
28 27 23 32 39 41 41 42 37 34 43 44 50 29 11 7 16 26 33 23 19 20 6 12 1 5 4 4 4 3 3 5 4 7 7 6 6 3 3 2 6 7 4 6 6 10 9
27 23 22 26 30 31 36 36 34 36 40 48 40 42 26 17 10 10 23 29 27 32 24 30 14 10 9 4 2 4 2 2 3 2 3 1 6 5 6 5 8 5 12 12 10 9 7

GFSGBSN_850_spd_024.txt.gz
Wind_Speed
21 20 20 22 27 28 26 25 22 20 17 16 16 16 17 16 15 15 16 17 18 19 17 15 13 13 13 8 5 6 7 4 3 10 10 7 3 2 3 4 4 6 4 16 15 14 8
24 23 22 22 20 23 28 28 26 22 23 19 17 16 17 16 14 15 16 17 17 18 15 13 12 12 11 5 2 4 11 1 5 9 6 6 5 13 9 6 4 18 14 11 11 14 7
28 27 25 25 22 22 21 26 29 28 23 22 18 17 17 16 14 15 15 16 17 16 13 11 11 12 14 12 3 4 6 2 3 8 6 5 12 9 8 6 13 3 9 5 5 12 4
34 32 30 27 25 24 23 20 25 27 26 24 21 17 17 16 15 15 15 15 17 15 12 10 9 12 10 4 9 11 6 3 4 3 6 7 11 9 3 11 11 2 5 5 9 5 6
37 35 34 31 29 27 25 22 21 24 26 26 22 17 16 16 16 15 15 15 17 13 12 9 8 8 10 10 12 9 14 9 5 4 5 10 10 4 4 3 5 5 2 4 3 13 2
39 38 37 36 34 31 27 26 22 25 24 24 22 19 17 15 15 15 15 15 16 13 13 9 10 8 10 6 9 6 12 5 8 5 10 6 3 2 3 4 1 4 2 3 2 7 7
39 39 39 39 37 35 33 29 27 26 24 23 23 20 17 15 15 15 14 11 6 3 6 9 5 11 3 6 7 10 10 12 10 5 3 2 4 3 6 6 5 4 9 6 5 10 5
45 42 38 36 38 38 35 33 32 28 24 23 23 21 17 15 14 14 12 8 4 5 11 19 22 28 26 20 9 7 12 12 6 5 1 4 4 6 4 2 4 2 10 8 11 8 5
48 46 43 39 36 37 37 36 33 30 26 25 24 20 17 15 13 13 11 10 11 15 6 15 18 22 21 11 10 10 17 15 6 5 6 5 6 5 1 8 5 6 6 4 3 4 7
51 49 46 42 39 38 35 35 35 33 30 27 26 23 18 13 11 9 2 8 2 8 2 7 7 11 14 14 6 17 11 9 3 9 4 4 2 2 2 3 4 5 9 3 4 4 1
49 50 49 46 42 39 37 36 31 33 33 28 28 25 22 15 9 9 4 7 7 4 3 5 7 6 15 12 2 7 15 16 6 5 6 8 2 3 4 6 3 7 2 3 2 4 2
59 52 51 49 45 41 39 34 32 28 31 31 30 26 24 22 20 10 8 3 8 4 7 4 9 8 7 11 8 2 10 12 8 5 0 7 2 5 5 3 4 5 4 7 4 3 3
63 60 57 55 47 43 40 34 32 30 27 30 31 28 30 22 21 15 12 5 3 4 5 5 6 7 8 6 5 5 3 4 6 3 3 3 1 3 3 4 7 4 5 3 4 4 5
57 42 53 51 51 45 40 39 34 33 28 28 33 30 29 26 19 15 12 2 9 7 8 4 7 10 8 8 7 6 5 6 3 5 1 4 2 3 2 3 1 6 7 5 3 3 3
60 48 52 49 51 44 42 36 36 33 30 27 30 33 30 30 23 17 11 11 7 6 5 4 3 8 7 7 7 8 8 8 9 9 6 4 4 5 3 3 5 7 2 4 7 3 2
53 65 50 53 42 41 42 35 36 32 33 29 30 33 34 31 26 19 7 17 7 11 5 1 7 7 9 8 7 7 7 6 6 10 10 7 1 2 6 3 6 7 3 2 3 4 3
55 54 62 56 50 46 44 39 37 33 37 30 30 18 22 36 26 14 13 11 15 29 11 4 4 3 9 8 10 7 10 7 9 4 10 5 4 4 4 3 6 1 2 1 4 4 4
57 54 55 61 57 53 50 44 34 40 39 36 31 9 25 43 12 13 16 12 15 23 16 7 5 9 9 10 8 8 8 8 13 17 11 8 6 4 10 15 4 4 7 6 5 4 0
59 55 52 53 51 51 52 38 33 42 46 45 22 14 33 43 12 12 8 20 21 12 6 6 6 7 4 7 6 6 6 2 11 6 7 7 1 2 6 5 3 7 6 4 5 4 6
61 54 52 54 48 52 39 38 42 45 49 49 18 9 15 29 34 22 19 15 17 23 21 14 8 6 4 2 1 6 3 0 4 7 16 13 4 7 7 7 3 2 3 4 5 3 4
61 55 52 51 53 43 39 42 45 43 53 53 20 10 19 14 20 18 21 15 21 14 17 14 10 15 9 5 2 6 4 1 3 11 3 6 5 4 5 3 2 1 2 2 5 5 6
60 55 53 53 51 44 40 44 44 51 54 53 20 8 25 6 25 19 21 23 26 20 10 17 12 11 8 7 7 8 8 5 5 1 4 2 4 1 3 2 2 2 5 5 5 3 5
61 55 52 51 47 42 42 45 50 51 49 27 37 24 24 18 18 17 23 24 27 20 18 35 13 15 5 9 11 18 21 22 13 8 3 4 6 4 4 4 4 5 7 6 5 3 4
55 50 48 49 46 43 43 40 48 51 52 20 40 18 15 10 13 21 24 24 27 20 19 23 35 12 6 23 28 25 25 19 14 6 7 6 5 3 3 3 2 7 5 4 8 5 6
48 46 47 45 42 43 40 43 47 44 54 44 19 27 7 5 12 15 25 26 21 28 15 27 12 20 32 9 4 5 5 5 5 7 6 2 5 2 4 3 4 5 3 5 5 1 3
44 44 44 41 40 42 43 43 41 44 57 59 39 32 3 1 12 23 22 25 18 13 13 6 11 23 19 3 4 5 5 5 4 3 6 6 5 4 2 4 6 7 4 3 6 2 5
41 41 41 41 43 42 41 40 37 46 55 57 46 35 5 6 12 37 19 23 30 8 10 4 10 6 5 3 3 3 3 7 6 8 4 3 3 5 2 2 7 8 7 3 5 6 9
38 38 38 39 40 40 41 41 41 49 48 44 43 37 20 7 16 11 31 32 29 28 8 8 7 1 3 3 3 4 3 5 4 6 7 7 6 3 3 2 6 8 4 7 7 12 17
34 35 34 33 36 39 39 38 47 38 44 45 29 35 22 10 10 10 15 26 47 36 22 17 10 7 6 4 1 4 2 2 5 3 3 1 6 6 8 6 6 9 6 21 20 18 14

GFSGBSN_850_spd_027.txt.gz
Wind_Speed
24 23 22 22 22 26 29 27 25 22 22 22 20 17 16 15 15 14 14 15 16 17 19 18 17 15 13 7 3 5 7 3 3 8 9 6 3 1 3 4 2 5 5 11 17 7 3
28 26 25 24 23 22 23 28 28 26 23 21 23 22 17 16 16 15 15 15 16 17 18 17 16 13 10 6 1 2 7 2 1 6 7 3 2 9 10 6 4 3 4 2 9 5 7
33 31 29 28 26 24 23 23 24 27 25 25 24 22 19 17 16 15 15 15 17 17 17 16 15 14 13 14 5 5 3 4 2 5 2 2 8 8 9 6 8 4 4 3 3 2 4
36 35 34 31 31 27 25 23 23 20 24 24 24 22 20 17 17 16 16 15 17 17 16 14 13 13 9 3 12 9 3 3 4 5 5 3 9 11 5 9 5 2 4 3 1 7 1
37 39 38 37 34 33 29 26 23 21 21 19 22 23 21 17 16 17 17 16 17 16 15 13 12 8 9 8 12 7 11 7 6 5 7 6 7 3 4 3 5 5 2 1 4 9 2
40 37 39 39 38 36 34 31 28 24 22 22 16 22 20 18 16 16 16 16 18 15 13 13 13 8 9 3 4 8 9 13 11 7 7 1 2 2 3 4 2 2 3 3 2 2 4
44 42 40 36 37 39 38 36 33 28 24 23 19 18 20 18 16 16 14 11 9 5 5 9 2 7 12 4 5 9 10 12 12 4 1 3 5 3 3 4 1 3 2 6 4 6 7
42 45 45 42 38 34 37 37 36 33 27 23 21 20 17 18 16 14 13 7 4 3 9 16 20 27 26 25 8 5 8 11 8 5 1 4 2 5 4 2 4 8 5 9 8 3 10
51 42 46 45 43 39 36 33 32 33 33 27 22 22 17 17 14 15 12 5 9 10 6 13 17 20 22 14 9 11 14 13 4 5 5 5 4 4 3 3 3 4 4 6 5 2 5
49 54 44 44 44 42 39 36 34 27 32 30 26 24 17 16 15 16 4 3 7 8 3 6 6 9 14 9 5 17 15 14 2 10 6 5 2 1 3 2 4 5 3 7 4 3 2
43 54 56 48 46 45 42 37 33 29 26 29 28 26 21 20 10 8 7 4 12 5 3 4 5 3 18 15 4 12 20 11 8 6 5 7 6 3 4 4 4 8 5 1 1 3 5
47 47 57 55 46 49 44 40 37 32 25 24 27 29 22 24 25 11 8 3 4 5 7 4 9 7 6 11 4 4 14 12 8 4 2 4 2 3 5 3 5 4 2 7 4 3 2
51 47 49 58 56 43 46 41 39 33 29 25 25 29 29 28 27 17 13 5 1 4 4 5 6 7 6 6 5 4 5 6 6 4 3 2 2 3 1 3 3 7 5 3 4 4 4
55 51 46 51 61 52 44 44 40 34 29 28 24 30 32 30 27 15 12 4 10 7 7 5 3 5 9 6 7 6 6 5 3 2 3 5 5 5 2 4 3 2 4 4 3 2 3
58 55 49 47 51 64 49 49 40 35 31 27 24 31 35 33 29 16 13 11 7 6 5 4 2 5 4 4 6 6 8 8 9 8 7 4 4 1 3 2 2 2 1 3 6 3 3
59 60 52 47 48 56 57 51 45 37 34 32 27 30 34 36 32 23 7 19 8 6 3 4 9 5 8 8 7 7 8 5 6 10 7 7 2 2 3 1 2 2 6 1 2 3 3
61 61 57 47 46 50 58 57 45 36 38 36 25 15 24 35 31 15 13 15 17 22 3 3 3 4 8 8 10 7 8 5 7 5 7 6 5 4 1 4 8 1 2 2 4 5 4
61 62 63 50 50 47 48 49 45 37 40 40 28 8 25 40 13 13 15 7 8 22 12 4 4 5 5 8 8 9 10 10 13 15 9 8 6 4 10 4 4 2 2 5 4 4 1
62 65 66 55 52 55 44 50 50 40 40 45 22 16 31 43 12 14 9 18 9 9 10 7 5 6 1 6 5 7 8 5 15 9 9 8 2 2 7 5 3 3 5 4 4 3 6
56 67 69 58 54 53 56 52 44 39 42 43 14 8 17 35 41 18 20 14 22 23 14 2 3 3 2 4 3 7 6 2 7 4 15 16 4 7 7 8 4 2 3 4 5 3 3
57 67 71 59 55 56 59 57 52 44 43 46 16 11 17 15 24 20 20 14 22 14 21 13 5 7 2 3 1 4 3 2 4 11 2 4 5 4 3 3 4 6 5 6 6 5 6
64 67 70 60 56 53 55 54 49 51 48 49 14 8 23 3 26 26 18 23 25 24 9 11 15 7 12 9 8 8 6 4 6 2 4 2 3 4 4 1 2 4 7 6 5 4 7
52 70 68 60 55 52 53 54 53 53 61 32 36 18 15 19 20 18 30 24 24 17 21 14 21 13 6 13 20 19 12 14 13 10 5 5 7 4 5 1 1 6 8 8 7 6 6
55 70 66 59 54 54 55 49 57 53 63 23 41 18 8 11 14 25 23 24 23 27 18 25 31 5 8 9 8 12 17 21 13 7 6 7 6 3 3 3 1 7 2 5 6 3 4
64 66 64 55 53 54 51 52 49 54 53 51 32 28 4 3 14 15 23 25 22 28 17 24 15 30 20 13 4 4 5 6 4 7 6 4 5 3 5 4 4 4 4 7 6 3 2
65 65 52 54 53 54 55 47 47 52 46 62 31 21 18 4 13 17 21 25 18 17 9 14 33 16 21 4 3 6 5 6 3 2 5 6 6 4 3 4 8 8 4 6 6 2 5
61 56 53 52 52 53 49 49 52 46 44 51 42 19 26 5 5 29 14 18 26 18 8 8 10 8 20 3 3 3 3 5 7 11 6 3 3 5 2 3 7 7 6 9 5 7 16
50 48 46 46 46 47 47 45 44 43 47 45 51 19 17 4 13 3 19 20 26 30 12 10 7 3 3 5 4 4 4 6 4 5 7 7 7 4 3 3 7 9 6 8 7 12 23
40 39 41 42 44 42 41 42 39 37 43 40 36 25 20 10 9 10 13 25 28 34 32 20 10 8 12 4 1 3 3 2 4 4 2 2 7 6 8 6 4 8 2 8 24 28 24

GFSGBSN_850_spd_030.txt.gz
Wind_Speed
28 27 25 24 24 24 25 28 30 27 24 21 21 22 21 19 18 18 17 16 16 17 18 19 19 16 14 7 3 3 5 3 2 8 8 6 1 1 1 3 3 4 4 4 7 8 5
32 31 30 28 26 25 24 24 23 27 27 25 23 20 22 22 20 19 18 17 17 18 18 19 17 16 12 5 4 2 3 2 4 9 8 4 2 6 5 4 3 4 5 3 5 8 5
34 33 33 32 30 28 27 25 23 20 23 27 25 23 22 21 20 19 18 17 17 18 18 18 17 15 16 15 7 7 2 1 5 6 4 2 5 6 6 4 5 4 3 3 3 5 3
35 36 35 33 33 33 30 28 26 23 20 21 25 23 21 20 20 19 18 17 17 18 18 18 16 14 10 5 13 10 6 2 6 6 6 4 7 9 3 6 5 2 3 2 4 1 4
33 37 36 37 32 32 33 32 28 27 24 21 21 22 19 17 20 18 17 18 18 19 19 17 14 7 10 6 11 10 9 5 4 3 6 5 7 3 3 3 4 6 1 3 2 8 4
37 35 38 36 36 34 31 30 32 28 26 24 21 20 20 13 18 18 17 18 17 17 16 12 13 7 10 3 5 7 8 12 6 3 5 2 0 2 3 5 1 1 3 3 2 3 3
38 43 36 38 37 35 32 31 27 28 28 25 24 20 20 14 14 17 17 13 10 8 6 8 2 6 9 3 7 9 8 12 9 0 1 3 4 4 7 5 3 2 1 3 4 5 6
38 40 44 38 38 38 35 31 28 27 25 27 25 23 19 14 14 15 14 11 7 6 11 15 20 28 26 24 7 8 11 9 6 5 2 5 3 7 4 4 5 3 2 6 4 4 6
42 37 39 49 43 38 38 37 31 28 23 23 23 23 19 13 14 15 13 12 11 9 6 12 19 19 24 17 9 11 17 11 4 5 4 4 4 2 4 4 1 4 3 5 5 3 4
48 45 40 38 51 46 39 38 36 31 26 23 23 22 18 12 14 16 14 8 13 6 3 6 6 8 16 11 5 16 17 11 2 8 7 4 5 4 1 2 3 3 3 4 4 3 3
53 51 47 41 37 52 44 40 36 34 29 26 23 22 20 17 9 5 5 4 7 6 2 2 4 4 16 20 9 15 14 11 8 6 6 6 3 4 3 4 4 8 4 1 1 4 3
56 53 50 47 41 41 50 41 39 36 31 26 23 22 22 21 25 12 10 3 2 4 8 3 8 7 6 9 4 9 13 9 5 5 2 5 3 3 5 4 5 1 2 5 4 3 2
57 55 52 48 44 44 47 50 40 38 34 29 23 21 28 22 23 20 12 3 3 5 3 4 5 6 6 6 5 5 6 6 6 4 2 1 3 3 1 1 3 3 5 3 4 4 4
57 56 54 50 46 45 44 51 49 41 35 32 27 23 30 28 26 17 11 3 11 5 7 4 1 4 9 5 7 5 7 6 1 5 3 6 5 6 3 5 7 2 6 5 2 1 3
56 57 55 52 49 47 43 43 51 41 37 34 27 26 32 35 27 23 12 9 8 6 4 3 1 4 4 5 6 5 8 8 8 7 7 5 5 2 1 1 1 3 2 5 6 3 2
56 56 56 54 53 47 45 43 49 51 38 33 30 30 37 36 31 27 7 18 10 6 2 2 6 5 9 7 6 11 9 6 7 10 6 7 2 2 1 1 1 2 7 3 3 2 3
54 54 55 55 52 50 45 43 47 53 41 31 29 17 20 38 32 17 13 15 19 16 2 2 2 3 7 7 9 6 10 3 8 6 6 5 4 4 2 6 8 2 1 5 5 4 4
46 52 52 55 54 54 48 45 46 51 42 36 30 8 19 43 18 20 17 9 23 24 10 5 3 3 4 6 6 8 10 10 17 13 9 7 6 4 9 3 2 4 7 6 4 4 1
46 47 48 53 57 58 51 47 44 47 49 44 21 12 26 50 15 16 16 20 8 15 15 7 6 6 2 2 3 6 7 7 16 8 9 8 1 1 7 4 2 4 5 4 5 3 6
50 51 50 48 55 60 54 50 46 52 57 43 18 6 16 36 45 20 22 18 24 15 6 11 3 2 1 3 4 4 7 4 15 12 10 14 4 8 9 8 5 4 6 5 5 4 4
51 52 51 51 55 63 55 49 52 63 54 46 24 8 16 15 23 21 21 14 22 18 18 15 4 6 5 4 3 4 2 3 3 7 5 7 8 5 5 4 5 5 5 9 7 5 6
54 53 53 50 52 63 58 50 52 64 59 42 12 9 19 6 29 24 18 24 25 26 10 15 5 10 7 4 6 3 2 4 6 4 5 1 5 5 4 1 1 4 6 6 5 4 5
51 53 53 50 52 64 59 59 64 66 62 31 31 20 11 20 20 19 29 21 21 17 25 13 21 10 4 17 27 18 14 10 4 6 8 8 7 4 5 2 4 6 7 8 5 5 7
48 50 53 53 57 67 60 60 60 60 63 32 45 17 8 6 13 23 20 21 23 22 10 27 15 9 14 13 4 6 8 7 9 6 3 7 7 3 3 3 2 7 1 4 9 7 5
46 46 48 49 67 66 61 63 63 64 56 43 26 24 5 8 12 12 18 28 15 25 18 9 30 14 6 9 3 1 4 3 2 6 4 2 6 3 5 4 5 4 5 8 8 9 7
42 44 47 49 72 64 58 63 64 60 56 51 34 41 14 4 7 22 16 22 18 11 7 12 34 22 8 3 2 6 6 6 4 2 4 6 7 4 3 5 8 8 5 7 4 4 8
37 40 52 69 64 56 54 57 56 54 57 53 42 35 8 2 6 17 15 17 23 18 2 7 20 8 15 2 2 3 4 4 7 10 6 4 4 5 2 3 7 7 4 11 5 8 18
31 56 65 62 55 52 52 52 54 54 58 59 52 33 14 4 19 4 14 20 21 35 12 8 9 9 3 6 4 4 3 6 4 5 7 7 7 4 3 3 7 11 6 9 8 5 28
58 58 57 48 49 50 50 50 48 54 52 57 40 44 11 13 7 12 12 14 27 30 32 25 10 10 14 4 1 3 1 1 4 4 1 3 7 6 9 7 5 14 5 15 10 15 26

GFSGBSN_850_spd_033.txt.gz
Wind_Speed
27 28 27 25 25 23 23 23 24 26 28 27 24 22 21 20 20 19 19 19 18 18 19 18 19 18 14 7 5 3 2 3 7 11 10 8 4 2 2 3 2 5 6 5 5 5 3
29 28 29 29 28 26 24 24 23 22 22 25 26 24 22 20 20 19 18 18 19 19 19 18 18 16 12 5 5 4 2 5 8 12 10 6 1 3 3 4 3 3 3 2 3 7 4
26 29 29 29 28 29 27 25 24 22 20 21 22 25 24 21 20 19 18 17 17 19 20 19 18 17 15 15 8 8 4 6 9 10 7 2 1 3 4 3 4 2 2 3 4 4 3
31 28 28 29 28 27 27 30 27 24 22 20 20 21 23 22 20 17 18 16 18 19 20 20 18 17 10 7 13 12 8 5 9 11 7 3 2 7 2 6 4 1 3 2 2 3 1
31 32 31 27 31 28 27 25 27 28 23 22 20 20 20 20 19 17 18 15 18 21 21 19 15 9 9 6 12 13 11 5 8 7 5 4 3 3 1 2 2 6 1 0 2 11 6
32 32 31 36 30 29 30 27 26 25 28 23 21 19 19 18 18 16 16 14 19 20 19 14 13 6 13 6 9 10 12 12 5 6 4 3 2 1 2 1 2 2 1 2 2 5 3
32 29 32 32 38 34 29 30 27 24 23 27 24 20 20 17 14 13 13 11 11 6 7 10 4 5 4 4 8 10 12 13 11 5 3 1 2 6 7 5 5 3 2 2 3 1 4
38 38 36 31 32 37 35 31 31 26 23 23 26 24 19 16 14 12 11 9 7 8 12 18 22 30 26 14 4 10 13 11 7 4 4 1 5 5 4 3 5 2 2 2 2 3 5
43 43 40 37 35 31 38 35 31 30 27 21 20 22 20 14 14 14 12 12 11 8 6 13 21 21 26 19 12 14 19 11 5 6 6 4 3 5 4 4 5 5 2 2 4 1 2
47 45 44 44 39 36 30 42 36 30 30 26 23 18 17 10 13 13 13 8 8 6 3 7 5 9 16 12 7 15 22 14 3 10 7 4 2 4 4 5 4 2 4 1 1 2 1
52 51 48 45 43 41 38 33 45 37 32 29 25 19 17 17 9 6 5 1 1 7 4 2 4 2 11 17 13 17 23 10 8 7 6 4 4 4 4 5 4 4 2 2 1 2 2
51 53 52 49 45 42 40 37 33 42 36 32 28 23 16 24 22 13 10 6 3 2 7 3 7 6 5 8 4 11 11 9 7 5 1 4 2 4 5 3 3 3 2 4 3 2 2
50 49 50 51 49 45 42 40 36 35 41 30 29 24 23 25 25 20 13 3 3 6 3 3 4 5 6 3 3 3 9 8 7 5 4 0 3 2 3 3 2 3 2 2 1 1 2
51 49 49 50 49 46 43 40 36 33 42 31 29 26 24 31 20 18 15 3 10 6 10 2 1 3 9 5 4 2 10 10 2 5 4 6 3 6 4 4 5 4 5 4 3 3 2
52 52 51 49 49 49 45 42 38 35 38 40 27 29 29 30 29 20 17 9 8 7 5 3 1 3 4 4 6 3 6 13 10 7 6 5 4 1 1 3 3 4 3 2 6 1 2
52 51 52 52 50 49 47 43 40 36 32 38 32 31 34 29 33 27 9 18 10 8 4 3 8 5 9 6 6 11 7 5 7 8 6 7 2 1 2 3 4 2 7 2 1 2 2
53 52 51 52 52 50 48 45 42 38 34 36 35 17 19 30 31 23 14 13 17 11 7 3 3 3 4 6 8 6 9 2 7 8 4 5 3 1 1 4 7 3 3 3 3 2 3
54 52 52 52 53 51 49 47 44 41 36 37 25 7 17 27 21 14 20 12 8 17 11 3 2 2 4 5 6 7 13 10 19 16 10 6 4 4 7 0 2 3 5 5 3 4 0
44 47 47 49 52 52 51 50 48 46 42 43 15 14 23 39 14 15 19 24 9 9 13 7 7 5 1 0 3 6 6 6 19 9 10 7 2 2 2 2 2 3 4 3 5 3 7
47 46 46 49 52 54 52 55 52 50 46 45 17 9 16 37 45 24 19 18 26 16 11 12 3 3 1 2 2 2 5 3 15 8 13 19 4 6 10 8 4 4 6 7 5 3 4
50 47 45 45 49 50 53 58 56 55 51 48 20 8 11 14 21 22 20 17 24 14 19 18 7 8 4 5 2 4 2 2 2 7 6 5 7 6 5 5 5 6 6 11 9 6 7
53 51 50 48 51 49 54 59 58 58 54 45 15 9 16 15 39 26 17 21 25 26 15 17 14 16 14 4 8 5 5 2 3 1 7 2 4 5 4 3 5 4 7 10 9 3 8
50 57 55 51 44 45 47 63 63 61 61 35 27 29 26 21 20 18 26 19 18 17 21 15 11 5 13 22 16 8 10 7 5 4 3 4 7 4 4 1 3 5 7 11 5 5 6
49 51 54 52 49 49 47 70 65 62 67 40 30 30 13 9 13 19 20 26 21 21 11 21 16 9 5 6 2 1 6 2 6 2 6 6 4 2 3 1 6 4 1 2 11 6 9
40 42 46 50 50 49 47 70 58 61 69 41 36 30 13 11 11 12 20 25 24 25 20 12 12 13 9 16 1 4 3 2 1 1 4 3 5 3 5 5 4 3 5 7 7 14 10
36 39 43 44 49 44 43 65 53 61 68 47 36 27 16 10 8 16 18 21 21 8 11 9 14 15 2 2 2 6 5 4 3 3 2 4 3 3 3 5 10 5 4 8 5 12 8
31 35 40 41 43 47 49 59 55 58 65 44 35 34 20 5 8 12 14 18 23 18 7 5 16 7 8 1 2 4 4 7 3 5 6 3 2 6 3 4 6 6 5 13 6 13 12
29 42 39 43 45 43 60 57 55 65 68 44 28 29 29 6 6 9 15 18 22 33 8 10 9 9 3 6 4 3 3 5 5 4 5 7 7 4 3 2 8 11 8 10 7 3 12
29 33 39 42 41 52 60 54 58 65 61 44 27 19 24 12 6 12 14 13 15 40 31 27 8 10 14 4 3 2 3 1 6 6 0 4 6 6 9 7 3 25 7 22 7 8 10

GFSGBSN_850_spd_036.txt.gz
Wind_Speed
20 22 23 23 22 22 22 20 19 19 19 20 23 25 25 23 22 20 19 17 17 18 19 19 18 19 16 7 8 7 3 5 10 13 10 7 6 4 3 2 4 8 8 9 7 4 1
23 19 23 23 23 22 23 22 22 20 19 18 18 19 22 24 23 22 20 17 15 17 19 19 19 18 14 10 7 7 5 8 12 14 9 6 2 2 2 4 4 4 7 3 3 2 2
25 25 23 21 24 24 23 22 23 23 20 19 18 18 16 19 23 22 21 19 16 16 18 19 20 20 17 17 8 10 8 9 14 13 8 6 2 3 2 3 2 4 5 4 5 1 1
25 27 26 27 25 21 25 24 23 23 23 22 20 19 17 16 18 20 21 19 16 17 19 19 18 17 11 13 12 15 12 9 14 14 9 5 4 5 3 3 5 5 8 4 13 6 3
27 26 27 27 26 28 22 25 24 22 22 23 22 22 19 17 15 17 18 18 16 17 20 19 14 8 9 10 15 17 15 6 12 13 11 6 4 5 4 6 7 6 2 2 10 9 2
29 27 27 27 28 26 29 24 24 26 22 24 23 22 20 19 15 16 16 14 14 18 18 13 11 6 12 5 7 14 19 12 7 10 6 8 7 8 7 8 7 4 2 6 6 11 10
31 30 30 30 28 25 29 33 28 24 25 22 22 22 20 18 16 14 14 9 8 4 7 10 5 6 3 3 10 11 18 16 10 12 11 9 9 11 10 8 2 3 3 4 2 4 7
35 34 33 34 32 30 29 26 29 26 25 23 20 21 20 15 15 13 12 5 5 7 12 18 18 23 23 6 4 11 15 15 14 15 9 6 11 7 4 8 7 6 5 5 2 1 6
39 38 37 35 34 36 32 29 25 30 21 24 22 18 16 14 13 15 12 10 11 7 8 11 17 15 16 22 13 17 19 15 16 16 14 11 4 5 10 11 10 8 8 3 6 2 5
44 43 41 40 38 35 37 35 27 23 33 22 22 22 14 9 11 12 11 10 7 4 5 6 8 9 16 13 11 20 23 16 9 17 12 10 5 8 10 10 10 9 5 3 4 6 3
42 44 45 45 44 40 37 35 34 28 22 33 22 22 18 15 8 8 6 6 8 6 6 4 5 6 10 23 15 21 25 16 16 10 8 9 11 11 10 10 11 5 4 1 3 4 4
43 43 42 43 44 43 41 37 34 32 30 27 31 23 22 17 19 14 11 13 8 5 9 4 7 9 9 17 10 22 21 13 13 11 12 5 2 6 6 5 9 7 5 2 3 3 6
43 44 43 42 42 42 41 39 35 33 30 23 35 27 25 20 18 12 15 7 6 11 3 7 6 8 13 12 13 17 22 22 16 16 15 12 12 4 5 9 7 9 8 6 7 6 7
43 43 45 44 43 41 41 39 38 33 32 28 28 34 26 26 21 17 15 6 13 12 19 2 4 9 11 15 14 17 23 22 23 20 12 13 13 13 10 11 8 13 11 5 4 5 3
46 42 43 45 44 43 41 41 38 36 31 28 25 37 29 30 28 17 15 14 17 18 14 18 8 6 10 12 8 15 21 25 24 20 15 14 14 3 5 6 11 7 9 2 1 2 4
47 48 44 46 46 46 44 41 40 36 33 28 27 31 33 27 32 27 9 23 19 16 13 13 22 12 10 15 13 15 17 21 24 22 19 8 11 5 6 6 3 5 10 6 4 6 7
52 49 50 49 48 48 46 44 41 39 35 31 27 15 21 30 33 16 8 26 31 21 18 14 13 13 10 11 19 17 14 5 23 21 19 12 9 6 6 11 13 6 7 3 2 3 5
52 48 46 50 51 50 49 46 44 42 39 37 30 10 16 37 17 8 13 31 38 28 23 12 8 11 12 11 12 19 20 15 21 25 22 18 11 10 12 3 5 9 10 13 7 7 3
43 46 46 47 54 52 51 49 48 46 48 44 22 19 22 44 12 16 25 32 31 18 21 18 13 11 7 9 8 15 16 9 18 19 18 14 11 11 13 6 4 8 10 12 5 2 10
47 45 46 44 45 53 53 52 52 52 54 46 19 8 13 36 36 26 33 30 26 30 21 26 16 10 10 10 4 5 10 5 15 19 16 22 16 19 14 13 9 9 13 14 15 9 11
48 47 47 47 41 42 55 54 54 58 60 48 21 10 15 14 23 31 32 28 30 30 29 16 18 19 11 6 6 5 4 5 4 6 8 11 19 18 18 17 16 18 17 15 18 18 15
51 51 48 47 46 46 44 53 56 65 65 48 21 12 28 16 37 30 28 31 35 26 23 29 22 17 12 15 5 3 3 2 1 5 9 8 13 16 17 16 15 17 18 18 19 17 14
50 52 50 49 48 47 48 62 59 72 70 33 34 32 25 17 26 20 24 33 28 30 36 23 22 18 18 18 8 7 9 9 12 3 9 7 8 7 15 7 6 9 16 17 17 15 16
46 51 55 52 49 48 47 51 64 74 74 43 44 34 18 14 16 24 32 30 30 26 26 34 13 19 7 2 5 9 4 11 11 13 10 6 9 6 6 5 8 11 3 17 18 18 18
44 53 57 52 51 49 49 47 56 76 73 50 37 32 20 10 17 21 28 24 29 30 22 24 26 15 13 6 1 4 4 4 6 7 10 11 7 4 5 10 11 4 6 10 12 17 17
12 30 49 52 49 53 50 44 55 76 70 49 37 32 17 13 16 27 17 27 19 17 19 26 17 14 13 4 6 7 7 8 7 6 2 6 6 7 4 8 9 10 13 15 6 16 13
17 27 38 44 48 47 45 48 51 76 64 48 33 39 24 16 18 20 17 14 33 30 16 19 23 11 13 4 5 7 6 6 12 4 5 5 4 11 10 6 6 4 8 15 10 15 3
22 26 36 39 43 46 42 39 54 69 65 40 38 37 35 16 9 12 9 16 26 35 16 20 18 9 7 9 6 5 4 6 9 14 6 9 9 5 7 6 10 14 11 11 14 6 7
23 29 34 39 43 44 41 37 68 57 61 40 36 35 26 21 7 8 9 15 11 29 32 29 17 20 12 8 6 5 3 1 5 10 4 6 5 3 9 7 6 27 19 25 11 10 8

GFSGBSN_850_spd_039.txt.gz
Wind_Speed
22 22 18 18 20 21 21 21 20 20 19 20 19 20 21 23 24 24 22 22 20 19 20 21 20 18 17 9 16 12 8 6 8 8 9 10 11 13 11 3 5 8 8 9 7 5 5
21 21 24 20 17 19 21 20 21 21 22 20 19 19 20 19 20 22 23 23 20 19 20 20 19 18 11 16 7 11 8 8 10 11 10 9 9 6 11 7 9 5 7 4 2 3 4
21 23 24 22 24 21 18 20 21 21 22 22 20 20 20 19 18 19 22 23 21 21 21 19 18 18 14 23 6 8 9 9 11 13 10 9 7 10 5 10 6 9 11 10 2 4 6
21 21 21 22 23 22 26 20 20 22 21 21 21 22 21 19 18 18 19 18 19 21 22 19 18 13 12 10 9 13 12 10 12 13 10 7 8 11 13 7 12 13 13 15 2 8 7
24 24 23 23 21 20 22 25 23 20 21 21 20 22 22 21 18 18 17 15 17 19 21 20 15 6 11 14 13 16 16 11 12 13 10 8 8 15 11 13 15 11 6 14 3 12 7
27 26 25 25 25 21 20 22 22 24 20 21 20 21 21 22 18 17 16 14 14 17 18 14 10 7 17 9 9 14 19 14 15 13 11 11 13 13 14 13 13 10 8 3 9 15 9
29 29 30 28 27 26 27 25 20 24 28 21 20 19 20 21 18 16 14 11 9 6 9 12 7 15 3 7 8 15 21 17 15 17 15 18 13 15 19 15 17 9 6 4 6 7 9
32 31 32 31 30 27 29 28 24 23 19 26 19 18 19 21 16 15 11 6 8 6 15 21 27 27 22 5 9 18 23 20 20 18 19 16 14 18 14 8 9 12 11 11 2 4 7
36 35 35 34 33 31 29 28 30 26 20 22 20 19 19 16 16 17 13 12 8 6 9 21 27 31 25 25 19 24 28 28 20 20 18 15 12 5 7 13 14 15 15 8 7 4 10
38 36 35 35 35 34 31 30 27 28 25 20 26 19 19 14 12 9 14 11 10 5 7 14 9 12 28 26 23 23 30 29 16 21 19 14 17 7 12 16 15 16 14 5 7 9 5
37 37 36 36 36 35 36 33 30 27 27 24 20 26 19 16 7 6 1 7 8 2 7 1 13 3 9 24 9 32 29 32 23 20 14 16 13 11 15 15 12 9 5 7 9 10 5
39 39 38 37 37 36 35 35 34 30 27 25 23 26 23 18 16 16 6 5 10 7 15 6 8 9 11 26 27 18 33 34 26 20 17 18 16 15 16 14 7 11 7 12 10 11 8
40 39 40 39 37 36 35 34 32 31 29 26 23 22 29 20 18 15 14 8 7 15 4 15 9 12 15 15 24 18 27 27 22 22 22 20 14 15 9 8 11 10 13 11 10 8 9
40 40 40 40 38 37 35 35 32 30 30 27 24 23 24 28 19 17 17 7 17 20 28 4 7 11 14 16 22 21 24 26 28 24 14 17 19 20 15 17 13 17 17 10 5 7 5
44 42 40 39 40 37 36 36 34 31 29 26 25 24 25 32 24 19 9 13 26 27 21 28 7 11 15 16 14 22 26 27 29 25 21 17 20 22 18 15 16 14 17 16 9 7 7
44 44 43 42 42 39 37 36 35 32 30 28 29 26 29 29 28 24 6 17 26 27 26 14 27 11 15 16 18 24 25 25 28 29 20 10 13 13 13 10 13 13 10 11 8 7 11
46 44 45 45 44 43 40 37 37 35 32 31 32 16 18 31 27 19 12 25 26 34 30 25 22 25 19 13 19 19 22 18 28 27 25 18 12 11 11 14 17 12 13 9 7 11 6
44 45 44 44 47 47 43 40 40 38 35 37 32 8 19 37 18 8 13 32 47 32 36 19 21 21 25 23 16 21 22 22 17 25 25 22 11 10 16 18 21 12 21 18 9 13 7
44 42 42 41 43 46 45 44 42 44 44 45 20 13 20 39 11 16 22 36 39 33 25 29 25 19 18 16 15 14 20 19 18 22 23 19 16 12 17 12 10 12 15 14 14 12 10
45 44 39 37 39 40 44 43 45 50 50 52 19 7 13 35 36 25 31 38 40 48 33 25 25 22 22 19 17 12 16 15 11 14 29 22 17 20 14 18 15 18 17 17 16 11 12
40 41 41 40 42 42 41 43 48 57 57 59 27 12 18 13 23 31 27 21 32 35 34 37 19 28 26 20 19 18 12 9 5 12 6 14 20 21 24 20 18 21 22 21 22 20 17
43 44 44 43 43 43 43 45 49 66 64 57 15 20 28 19 32 29 28 29 31 31 32 27 25 24 22 16 14 1 9 5 7 11 14 16 14 20 21 22 22 22 19 17 20 20 18
46 47 47 46 45 45 47 46 46 67 74 36 29 35 32 22 25 22 26 33 37 31 39 38 30 23 20 23 8 10 10 2 2 7 9 14 12 15 16 20 20 20 17 19 20 20 17
46 47 47 48 48 48 50 47 49 53 78 39 47 38 20 14 16 26 34 31 32 36 28 31 37 24 28 9 2 10 9 11 7 11 11 6 9 10 10 6 20 11 18 22 23 21 18
46 47 46 49 51 51 51 49 50 51 81 54 52 35 20 11 22 24 28 26 30 35 30 26 44 39 26 8 5 4 6 8 9 18 12 10 9 7 11 12 15 18 21 12 15 16 18
41 43 42 46 49 53 52 50 50 46 76 61 48 44 29 15 14 33 19 29 17 20 22 21 39 17 19 7 6 9 11 12 9 5 6 18 13 10 6 16 19 11 20 16 14 16 16
17 25 34 43 51 47 49 50 48 51 65 67 46 53 28 19 22 25 17 20 28 22 15 18 29 29 22 9 8 9 11 16 13 9 5 8 6 12 12 10 8 10 14 14 13 8 2
7 7 10 34 57 46 48 47 48 53 63 63 37 49 37 19 15 8 22 15 28 27 16 22 15 14 11 12 11 8 7 13 10 17 13 7 6 5 9 11 15 4 10 14 15 22 9
5 11 20 32 41 45 47 43 36 42 63 56 37 39 33 13 6 10 5 8 20 32 31 25 19 24 14 10 7 7 4 4 9 10 13 9 10 5 7 4 10 19 19 22 22 17 12

GFSGBSN_850_spd_042.txt.gz
Wind_Speed
21 21 21 24 21 19 18 20 20 20 21 21 21 20 20 20 19 20 23 24 24 23 23 23 22 20 19 8 16 12 10 12 9 9 9 10 10 12 18 14 7 11 14 12 12 8 11
19 20 23 22 23 24 20 20 19 20 21 21 21 21 20 20 19 19 20 21 22 23 23 22 21 20 14 14 7 12 13 12 9 11 9 12 12 13 13 18 12 9 11 15 10 12 9
20 19 20 18 18 22 25 26 21 20 21 21 21 21 21 20 19 19 19 19 20 20 20 21 19 19 17 29 10 6 8 11 10 12 12 10 11 11 15 15 18 14 15 15 16 10 1
21 21 21 21 20 19 19 21 25 24 19 20 21 20 22 22 20 19 18 18 18 18 19 17 17 16 14 10 11 16 15 14 14 14 14 8 8 12 16 18 21 15 18 16 10 15 9
23 23 23 23 23 22 19 18 20 19 25 19 20 21 20 23 22 20 18 17 15 17 16 15 14 8 14 12 20 18 18 18 15 14 14 11 8 13 16 15 13 16 15 15 7 2 8
26 26 25 25 25 23 23 22 19 18 20 23 20 20 21 22 22 19 19 17 14 21 14 6 8 10 15 12 11 15 20 19 17 15 14 14 11 11 13 12 13 7 12 11 7 6 10
27 27 27 26 26 25 26 26 24 22 19 19 25 23 20 19 21 18 17 14 9 5 8 11 4 13 22 7 5 12 20 20 15 20 16 19 11 15 18 18 19 15 9 21 7 6 11
30 30 30 29 29 29 27 25 24 25 24 19 19 22 20 18 17 19 13 6 7 8 13 23 28 32 31 21 10 15 22 22 21 19 19 15 18 18 18 19 17 14 13 18 5 11 5
32 33 32 33 32 31 30 28 26 24 25 24 18 17 18 17 17 20 14 15 11 13 10 27 30 33 35 27 30 19 27 30 19 20 19 19 17 19 17 18 11 14 16 16 13 6 9
34 35 34 33 32 30 29 29 29 26 24 21 21 15 18 14 15 6 12 11 11 10 7 14 20 21 31 29 27 33 28 30 19 22 21 19 22 17 10 13 14 15 14 13 10 13 9
37 36 35 32 31 31 29 29 27 28 26 23 19 19 16 16 7 4 3 6 3 3 7 8 8 11 10 35 8 28 30 32 24 22 13 19 21 17 13 15 16 13 1 10 13 13 14
40 38 37 35 34 33 32 29 27 26 28 25 22 19 14 20 19 15 6 5 8 5 12 7 10 9 12 21 35 13 36 31 33 23 21 21 22 16 15 15 16 9 10 14 11 11 11
41 39 39 37 35 34 34 32 29 26 24 26 24 20 22 15 16 9 13 12 6 13 7 13 9 10 13 14 21 23 22 25 22 20 21 20 23 20 16 17 17 9 11 8 9 9 9
43 42 40 38 36 35 33 32 31 28 25 23 24 23 24 19 19 8 11 5 16 17 29 5 8 16 15 15 17 22 22 22 24 24 15 17 15 21 14 17 13 12 15 8 4 3 9
43 42 40 40 39 36 35 33 31 29 26 24 23 26 25 21 26 18 7 14 18 24 21 29 15 10 14 14 15 17 22 21 23 25 20 16 23 18 20 15 18 14 15 15 7 3 5
43 42 40 40 40 39 36 35 32 30 27 24 25 27 30 23 25 21 7 12 28 23 30 23 26 19 14 16 15 15 21 17 22 23 23 18 11 18 18 19 19 16 12 11 7 5 6
43 43 43 42 42 41 40 39 35 32 29 26 27 13 18 27 24 19 12 18 29 43 33 29 27 24 24 18 18 18 17 21 23 23 24 19 12 12 16 16 16 10 12 8 13 11 6
45 45 43 42 42 43 42 40 39 36 33 33 28 7 20 36 17 12 18 35 28 27 42 29 26 27 23 21 19 13 20 18 25 23 27 22 9 13 17 12 15 18 16 17 10 9 5
47 46 46 43 42 41 42 42 43 40 41 42 18 13 22 46 13 16 20 35 37 25 28 32 27 27 20 19 17 19 17 20 20 14 23 19 16 8 17 18 17 15 19 14 15 11 12
44 43 42 43 43 44 41 40 44 46 48 49 17 7 14 37 36 26 25 35 30 38 29 35 28 23 20 18 17 12 16 10 14 15 13 11 13 18 14 13 10 16 18 17 13 8 4
43 42 38 39 39 43 41 43 46 52 52 55 22 9 20 14 23 29 26 16 32 26 36 35 28 30 25 21 17 17 15 22 8 11 4 5 16 20 20 19 19 18 19 19 20 22 15
35 35 37 37 38 37 37 41 49 50 54 59 15 10 30 15 33 26 25 30 31 23 25 31 29 29 23 23 15 7 20 16 12 12 13 5 11 14 21 21 20 23 19 22 19 20 20
39 40 40 41 41 41 40 42 43 45 68 34 32 38 26 23 22 19 26 33 35 24 25 33 32 26 27 22 25 12 5 8 9 18 14 12 8 14 16 17 14 21 19 17 17 19 13
40 41 42 43 43 44 44 45 45 47 54 37 38 38 11 10 17 23 31 35 32 27 24 25 37 27 31 13 16 7 4 12 11 21 10 2 13 10 7 1 21 11 14 16 16 15 16
40 40 40 41 44 46 48 48 51 51 51 58 23 39 22 4 17 23 31 26 32 31 24 25 33 44 34 15 10 5 3 2 8 21 8 8 6 3 4 14 17 17 17 12 13 17 20
34 37 39 42 46 49 49 51 52 54 54 51 44 44 34 12 13 36 16 28 16 18 18 25 38 27 28 12 5 9 5 9 8 5 10 10 9 4 3 11 16 6 12 18 15 16 14
31 35 36 39 46 53 52 51 51 53 53 54 38 53 35 16 25 18 12 19 32 23 14 17 27 18 18 9 10 10 10 13 8 12 6 6 3 10 8 7 5 7 13 22 19 8 9
24 24 26 28 30 44 49 48 50 50 53 54 47 51 41 10 16 20 17 28 25 26 13 15 14 15 9 7 8 9 6 8 13 12 10 7 6 5 5 4 11 8 9 15 8 29 13
17 17 19 26 33 39 41 45 46 51 50 54 34 51 38 15 5 12 19 23 23 23 22 23 23 11 11 8 3 7 4 5 8 9 11 7 9 5 6 3 19 31 20 22 16 15 15

GFSGBSN_850_spd_045.txt.gz
Wind_Speed
22 25 22 22 23 22 22 21 19 19 19 20 21 21 20 19 19 18 18 18 18 20 20 21 21 21 20 9 23 17 14 10 10 11 13 12 13 16 9 7 16 4 6 13 16 15 0
19 18 18 19 18 19 22 23 25 22 21 21 21 23 21 21 20 19 19 17 17 19 19 18 17 18 15 12 4 9 15 16 14 13 13 13 15 17 12 14 8 13 10 10 19 21 3
16 17 18 19 21 19 18 19 22 24 26 23 21 22 23 22 22 21 20 19 17 18 17 16 14 16 21 32 10 8 7 14 11 13 11 9 12 15 11 8 15 23 8 7 15 4 3
19 20 20 19 19 18 20 20 19 20 21 22 24 21 22 24 24 22 22 20 18 17 18 15 13 13 16 15 10 24 19 16 15 13 15 16 12 7 7 13 14 8 7 4 12 9 4
22 22 21 21 21 21 22 21 21 18 19 20 19 22 20 22 25 25 23 21 17 18 19 16 14 9 16 6 16 22 19 21 17 15 16 16 9 8 13 4 6 5 10 11 11 8 6
23 24 23 24 23 23 24 23 23 22 20 20 19 19 23 20 22 25 25 22 16 21 19 12 7 8 12 8 10 9 17 20 21 16 13 17 6 4 4 2 6 9 6 3 1 4 4
25 24 25 25 25 25 25 24 23 23 23 20 18 17 19 21 20 23 21 18 5 4 6 11 8 12 24 17 11 8 7 21 22 19 9 14 4 10 11 13 16 14 13 8 6 8 7
27 27 26 27 27 27 26 26 26 24 22 20 20 18 18 17 16 20 16 12 6 12 13 19 26 33 33 30 22 19 14 16 19 11 8 8 15 13 16 17 15 13 10 7 7 2 4
28 28 28 29 29 30 29 28 26 26 24 21 19 19 16 15 15 18 14 15 13 12 7 24 34 29 40 30 34 33 19 29 7 11 10 13 11 18 19 18 14 13 5 6 3 5 7
29 29 29 30 31 30 28 27 25 24 23 23 19 16 14 12 12 7 6 9 13 5 5 8 11 13 25 29 13 35 28 27 11 17 14 12 19 19 20 16 9 6 8 5 4 2 4
30 30 32 32 32 31 27 25 24 23 23 22 20 16 13 10 7 11 1 4 6 6 5 9 5 8 12 24 10 23 34 26 18 18 9 16 7 14 16 11 6 9 6 4 2 6 4
32 33 34 34 33 32 30 27 25 23 22 22 21 18 13 17 19 16 12 3 6 2 11 6 8 6 6 25 19 5 28 33 21 14 15 15 22 15 15 10 8 7 3 2 3 1 4
36 36 37 35 34 32 31 29 26 24 21 20 20 21 18 15 21 8 11 6 2 7 6 6 5 9 6 6 17 18 9 11 12 15 17 16 19 18 11 6 5 6 3 1 3 3 6
38 39 38 36 35 33 32 29 27 24 22 19 19 19 21 20 16 13 6 1 9 7 17 4 3 10 9 8 11 13 16 15 16 11 6 13 13 16 10 12 9 8 7 5 4 2 4
40 40 38 38 37 34 33 30 28 26 22 19 18 19 23 22 16 14 10 10 9 9 13 16 17 13 9 9 7 13 15 15 12 18 14 9 18 8 16 6 7 5 4 8 7 2 3
41 41 41 40 37 34 32 31 29 26 24 20 22 23 28 22 16 16 6 20 15 11 18 17 13 7 5 3 7 7 8 10 17 19 20 5 6 16 18 11 9 10 4 3 2 4 2
42 41 40 37 37 36 34 32 31 29 26 23 24 12 15 26 21 15 12 15 18 23 25 8 12 12 16 14 7 11 9 10 9 17 20 17 13 9 2 4 6 4 7 4 7 5 5
43 42 41 38 38 38 37 35 33 32 29 26 23 5 14 34 14 12 21 13 16 10 26 17 8 9 12 15 11 14 4 9 12 9 19 15 4 12 18 5 8 12 11 8 5 5 3
44 43 42 40 39 39 39 37 35 36 35 32 13 9 24 45 11 17 19 26 25 20 15 9 14 12 12 16 8 6 5 11 23 6 12 9 14 9 8 8 5 9 7 6 5 5 8
45 43 42 41 41 40 40 40 38 39 39 39 14 6 12 38 31 21 20 22 23 14 22 30 18 16 23 20 15 6 4 6 22 13 31 21 10 14 17 5 6 8 9 13 11 4 5
44 43 41 41 40 40 40 40 43 42 44 44 21 7 16 14 24 19 18 7 23 18 20 15 15 24 20 11 16 8 5 6 9 18 13 6 11 11 15 13 13 11 16 15 14 15 11
44 42 42 40 40 40 42 43 45 46 46 50 16 11 22 9 22 23 21 26 26 16 16 18 22 21 16 18 20 13 6 3 1 9 7 9 6 7 5 9 16 18 15 18 15 5 11
42 41 36 34 34 35 36 37 39 44 49 44 30 36 21 17 13 16 28 34 27 15 23 29 21 19 19 27 20 15 3 14 8 4 7 6 7 2 13 5 6 15 19 13 6 11 11
36 36 37 37 37 38 37 38 42 44 49 47 28 29 14 5 18 24 24 25 20 17 22 20 30 18 42 18 12 8 11 6 6 9 7 9 7 4 4 5 11 10 11 10 8 11 10
38 39 40 40 40 41 41 43 43 46 48 51 41 32 22 9 19 20 25 20 21 28 21 22 32 26 22 21 9 4 1 1 4 4 10 7 3 5 5 12 4 8 5 7 8 11 6
38 40 40 42 42 43 44 47 47 48 49 47 25 37 25 16 11 31 17 21 11 16 18 27 35 28 21 6 4 8 5 6 4 3 9 10 4 9 2 6 16 3 11 13 4 11 4
33 31 32 34 37 40 42 44 48 50 49 46 31 37 15 12 29 22 13 18 27 16 10 14 21 16 20 3 8 6 5 2 4 8 7 4 6 4 3 2 6 5 6 12 9 3 11
27 28 29 32 36 41 43 45 48 47 50 47 35 35 32 2 8 18 31 21 24 26 10 6 10 15 2 6 5 4 4 6 4 11 2 6 7 3 3 2 5 17 8 3 10 22 25
21 25 30 32 35 37 42 46 48 48 48 47 29 30 32 17 4 25 22 19 30 25 16 23 13 5 12 3 1 2 2 4 9 6 11 5 7 8 8 5 7 14 8 10 15 20 23

GFSGBSN_850_spd_048.txt.gz
Wind_Speed
16 15 15 17 18 19 24 28 28 26 22 23 23 25 25 23 22 21 18 16 17 17 18 18 16 17 18 8 26 15 16 12 10 13 11 12 11 8 4 4 6 6 6 16 6 8 10
15 15 17 18 18 16 18 18 18 23 24 22 25 25 25 25 24 24 23 18 17 18 17 17 16 17 14 9 14 6 12 11 12 15 14 14 10 7 11 6 0 8 15 12 12 2 14
16 16 18 17 16 17 17 17 18 19 17 20 20 22 24 25 27 24 24 22 19 18 17 16 15 16 18 30 16 8 14 16 9 10 16 14 15 12 9 6 7 11 6 9 8 4 6
18 17 18 18 16 18 18 18 18 18 17 18 18 20 21 24 25 26 25 24 21 18 18 16 14 15 16 13 16 22 24 20 14 11 15 13 10 15 6 4 8 5 3 4 7 1 6
19 18 19 20 18 19 19 20 21 20 19 19 19 21 21 22 25 26 26 25 21 19 19 17 14 11 17 10 10 10 20 29 16 14 15 13 15 11 4 3 4 2 5 5 9 4 6
19 20 20 20 20 20 20 20 21 21 21 21 20 19 21 20 23 25 26 23 19 18 17 14 8 7 18 14 5 13 10 22 17 11 15 15 7 3 2 4 6 6 4 2 6 5 4
20 20 22 21 21 21 21 21 21 21 22 21 19 20 20 21 22 19 23 13 5 2 5 9 8 16 25 15 16 12 9 17 18 13 7 5 3 10 11 10 6 6 6 10 11 8 4
23 22 22 23 23 22 22 22 23 24 23 22 20 18 19 20 20 15 16 12 4 8 14 21 22 35 38 31 16 16 8 14 11 9 5 4 13 12 8 9 8 9 11 16 8 5 6
24 22 22 23 24 22 23 23 24 24 25 22 20 19 17 17 19 12 11 8 10 17 6 15 32 29 37 26 27 31 15 18 5 7 8 12 6 14 11 12 9 13 11 12 8 4 2
25 23 24 24 25 23 24 24 24 22 22 20 18 18 16 13 14 9 8 6 12 6 4 8 8 16 25 21 11 41 29 13 7 13 9 8 17 13 9 11 11 13 13 9 4 3 3
25 26 25 25 26 27 26 25 25 22 20 19 18 17 15 13 11 13 5 13 10 6 5 6 6 3 12 24 10 17 35 23 12 12 8 8 8 15 15 19 11 14 10 8 7 4 3
27 27 27 26 26 28 27 26 25 23 20 20 18 17 15 17 20 17 18 15 1 2 9 6 5 7 9 16 4 4 22 21 15 6 11 10 12 5 7 10 12 11 3 1 3 1 1
28 28 28 28 29 29 27 26 26 24 21 20 18 18 17 19 21 8 11 8 2 6 3 5 4 5 8 9 7 3 6 11 9 7 12 13 20 15 9 8 8 5 5 2 3 3 6
28 28 28 30 30 30 28 27 26 23 21 18 19 18 19 24 16 10 9 4 12 4 12 3 4 6 2 5 6 4 5 5 8 3 5 9 6 14 8 16 8 7 8 6 6 3 4
30 29 29 31 32 31 29 29 26 25 22 19 17 19 21 23 18 11 5 10 6 6 5 8 15 3 3 3 5 7 8 9 8 13 7 7 7 8 6 7 8 6 4 7 7 3 2
32 32 32 32 33 32 31 31 28 26 24 20 21 21 26 20 18 14 5 19 7 5 7 8 2 3 3 5 5 2 7 5 7 12 12 4 4 6 14 5 8 11 7 4 2 5 3
33 34 34 35 35 33 31 30 27 26 25 22 23 12 16 24 21 14 10 14 14 24 16 5 2 4 3 4 4 4 4 8 7 11 14 9 6 10 4 6 15 3 4 3 6 5 5
35 34 35 36 35 34 32 31 29 27 26 23 21 5 14 29 13 8 17 11 6 7 18 12 7 3 2 5 4 3 4 5 9 4 7 11 8 13 22 10 4 6 9 8 5 4 3
36 37 38 37 36 35 33 31 31 31 29 26 10 9 27 39 12 17 11 16 20 3 4 3 5 6 7 3 4 5 4 9 7 5 2 5 6 3 7 7 10 6 5 5 4 4 8
39 41 40 40 38 36 34 33 33 34 33 31 12 5 11 33 20 16 18 19 19 14 19 21 12 9 3 4 7 8 7 7 10 5 7 1 4 10 17 5 5 5 5 7 9 5 5
44 43 42 41 39 37 36 36 36 37 36 32 17 7 11 9 19 13 16 9 21 18 16 11 9 22 7 6 2 11 6 7 2 6 6 7 5 10 10 15 14 11 14 12 10 6 9
45 44 42 40 39 39 38 36 37 38 38 38 13 8 13 4 17 21 22 24 25 16 11 14 17 7 15 17 8 11 12 9 6 2 4 4 4 10 9 11 15 17 11 16 16 7 6
43 43 42 41 40 39 39 39 40 39 39 36 35 19 16 14 11 14 30 17 18 17 14 30 15 15 16 9 15 15 18 18 8 4 3 5 3 6 6 4 4 9 22 13 5 5 6
39 39 38 37 37 37 37 37 37 41 46 45 32 18 11 6 17 25 9 19 19 18 21 18 19 14 15 17 13 8 1 1 2 3 3 6 4 2 4 4 15 13 6 8 13 11 8
34 33 32 32 32 33 35 36 36 39 50 50 36 25 20 10 13 18 22 14 23 27 21 21 28 28 22 16 4 5 2 3 7 6 6 3 5 3 5 4 8 9 6 5 10 20 8
34 35 35 35 36 38 38 38 39 38 38 48 35 26 17 5 19 23 14 21 11 14 15 26 30 24 15 3 3 7 5 4 5 5 8 8 5 3 4 3 5 5 8 12 2 4 5
35 36 37 37 36 38 40 39 40 40 39 41 31 41 17 6 14 25 15 20 24 13 5 5 15 18 20 3 4 4 6 3 4 6 7 3 2 5 4 4 8 10 16 9 7 6 14
27 26 31 34 34 36 40 43 42 41 41 43 32 35 35 3 9 32 31 20 23 28 9 7 7 7 3 6 4 4 3 6 3 2 7 7 6 4 3 3 9 9 16 5 2 4 11
24 24 25 28 31 34 35 36 39 42 43 42 30 24 35 24 8 13 23 29 37 40 31 19 7 6 12 4 3 2 2 2 6 6 4 4 6 4 6 6 7 19 6 3 3 7 10

GFSGBSN_850_spd_051.txt.gz
Wind_Speed
13 13 13 15 16 16 16 17 17 17 19 20 27 27 29 27 28 29 25 23 21 21 20 19 19 21 18 8 20 11 11 10 9 10 11 9 12 6 4 4 3 5 5 8 16 6 13
15 15 15 16 17 16 17 17 18 20 17 16 18 21 24 27 29 30 29 26 22 22 20 18 19 20 14 8 10 10 16 23 17 14 14 13 6 7 5 5 3 3 8 16 11 12 12
16 16 17 17 17 17 18 19 18 17 20 19 17 18 19 21 25 29 30 29 26 23 20 17 19 19 19 29 16 11 11 14 16 13 14 14 14 7 1 4 4 5 5 7 7 9 6
16 16 17 17 18 19 17 20 20 17 19 19 20 18 19 21 21 23 26 30 28 22 22 15 17 15 16 16 21 17 20 19 20 15 13 11 7 8 5 5 5 5 1 2 3 6 5
17 17 17 18 17 18 18 19 20 19 19 19 19 21 21 22 24 23 26 26 26 21 22 16 14 11 17 14 15 4 7 24 23 15 16 9 6 8 6 4 4 4 5 4 8 3 3
18 18 19 19 19 18 19 19 20 19 19 19 20 21 22 21 23 26 28 26 18 13 11 8 8 7 20 14 8 8 12 7 18 13 14 9 8 4 2 4 6 5 4 2 3 5 1
20 19 22 20 19 20 20 19 19 20 21 20 20 20 21 22 21 23 26 24 6 2 5 11 10 13 14 10 15 7 4 5 16 16 6 8 4 9 9 7 5 2 3 5 6 9 4
21 22 23 22 21 21 21 19 19 20 20 21 21 20 20 21 21 21 18 9 6 11 15 23 28 37 40 31 17 21 5 9 10 6 6 3 14 8 8 5 5 5 5 11 9 9 7
21 22 23 20 19 21 20 20 20 21 20 20 20 19 19 19 20 19 12 4 5 23 7 14 26 31 38 24 24 37 19 7 5 7 9 8 4 14 10 5 6 7 7 10 8 8 4
22 24 22 23 22 23 22 21 20 20 21 19 19 17 15 18 17 11 9 4 9 17 4 8 7 12 16 16 9 40 23 14 6 14 7 7 13 4 5 10 8 7 10 11 8 2 5
23 24 23 24 24 23 22 22 22 20 21 20 17 14 15 17 13 14 10 14 14 2 5 3 5 3 9 18 4 13 36 20 8 7 8 10 7 11 13 16 7 9 5 9 9 7 3
25 25 24 24 24 23 22 23 22 19 20 19 18 16 14 19 21 16 19 16 8 2 9 6 4 5 7 11 5 4 13 18 17 3 3 12 4 6 9 7 10 10 4 3 0 4 2
27 26 26 27 24 23 22 23 22 20 22 21 18 18 18 21 20 13 12 9 4 6 6 5 4 3 5 6 5 2 8 12 8 7 8 5 9 3 2 2 2 5 2 3 3 0 5
28 27 28 25 24 24 23 23 20 21 23 20 19 18 20 24 19 16 11 1 11 2 8 7 6 11 4 5 5 5 7 6 5 4 4 10 5 11 6 12 7 6 9 5 6 4 4
28 28 27 26 26 25 24 23 23 22 22 20 17 21 25 27 19 12 3 7 4 4 4 8 10 3 5 4 2 3 6 7 9 8 6 6 6 4 6 7 11 4 5 7 5 3 2
30 29 29 28 27 26 25 24 26 24 25 22 22 24 29 25 18 16 4 11 8 2 8 9 4 5 5 8 5 5 3 1 7 11 7 4 2 5 5 4 5 7 5 2 2 4 4
32 30 31 30 29 28 26 26 28 23 25 22 23 13 16 26 18 14 8 7 11 26 17 4 5 5 4 5 5 5 4 3 5 3 10 9 4 6 4 4 7 2 3 2 3 4 6
35 35 34 32 30 29 27 29 28 23 24 25 23 5 18 28 10 8 12 8 11 8 9 6 1 6 2 7 5 3 3 6 12 4 2 4 5 10 18 8 3 3 6 8 5 4 2
37 36 36 32 31 30 30 30 28 26 28 22 11 6 27 36 10 12 5 10 12 4 5 2 3 2 4 2 4 1 4 4 23 9 4 5 3 2 14 4 3 7 6 5 2 3 10
41 39 38 34 34 33 33 31 30 30 31 29 7 5 10 24 9 16 10 9 12 15 13 4 3 3 2 3 2 4 5 5 22 5 4 7 3 4 4 5 5 3 8 8 9 6 4
42 42 41 36 37 37 36 35 34 33 35 31 16 6 9 7 14 8 16 9 16 10 14 4 7 13 4 3 4 3 6 5 6 6 4 4 2 4 10 11 10 15 12 9 12 7 9
43 44 42 41 40 41 40 37 37 36 36 36 11 6 8 4 20 20 17 15 16 17 10 15 10 4 3 14 11 4 5 3 6 3 2 2 1 5 6 12 15 14 16 18 16 5 7
49 49 46 44 45 43 40 39 37 35 36 31 28 13 12 10 14 18 21 20 18 14 14 24 11 10 10 14 18 23 22 16 10 8 3 4 4 0 3 11 16 10 8 10 9 6 7
37 35 39 40 40 40 40 39 38 37 42 41 26 20 11 9 12 14 17 21 21 17 17 13 26 13 12 9 17 21 19 19 11 7 7 6 5 1 3 4 5 6 23 10 13 13 8
31 29 32 35 36 37 36 36 37 39 42 45 39 28 20 11 9 17 15 20 26 25 19 23 19 27 13 18 3 3 3 3 7 7 8 5 5 3 3 2 8 13 8 7 11 20 6
34 32 31 30 31 31 32 32 36 39 41 45 44 31 25 5 16 14 17 20 10 11 12 16 28 23 6 2 2 3 3 4 1 3 6 5 3 3 2 3 5 10 18 14 12 16 6
33 32 31 32 33 34 34 33 32 35 39 42 31 47 24 8 13 22 14 17 17 13 4 7 9 14 24 2 1 3 4 3 3 7 4 3 2 4 2 4 7 8 8 3 2 6 14
25 28 30 32 34 35 34 34 35 36 36 38 35 41 39 13 8 15 25 16 20 24 6 9 4 4 4 5 4 4 3 5 5 5 7 6 8 4 3 3 8 10 2 8 7 19 24
22 24 26 29 32 29 37 38 36 38 39 38 25 28 37 12 7 14 24 30 34 36 28 16 9 6 11 4 2 2 2 1 5 3 3 4 6 6 8 6 6 12 8 9 11 10 19

GFSGBSN_850_spd_057.txt.gz
Wind_Speed
10 11 12 10 12 14 14 14 15 16 17 18 19 19 20 20 22 23 22 26 25 25 24 23 24 31 25 12 21 18 8 7 13 18 15 16 19 9 6 7 9 6 6 7 15 13 11
11 11 10 10 13 14 14 16 16 17 17 18 18 20 21 21 21 21 24 24 26 25 24 22 18 28 23 8 11 9 9 15 12 15 15 17 11 13 7 6 9 8 10 8 9 12 6
14 14 12 13 13 14 16 16 16 16 17 18 19 20 21 23 25 23 23 25 26 25 24 22 19 21 27 30 20 30 25 16 19 20 18 18 10 11 8 3 8 3 4 5 7 5 5
14 16 14 14 15 15 15 16 16 17 17 17 18 20 22 23 25 26 26 25 24 24 26 22 18 17 18 26 26 29 24 22 16 16 18 14 14 12 4 3 3 4 1 5 1 4 1
15 16 15 16 14 18 15 16 15 15 17 17 18 21 23 24 24 27 29 29 24 20 19 15 10 10 15 12 20 10 13 20 19 17 16 6 10 7 6 4 2 1 6 6 4 4 3
16 17 14 18 17 18 20 17 15 17 18 17 17 20 22 23 24 27 28 27 12 8 8 2 7 3 12 12 14 7 6 7 11 20 11 9 7 4 3 9 11 8 5 5 7 4 2
17 18 17 18 18 19 18 14 16 16 17 16 18 20 20 21 22 24 28 20 7 4 12 8 7 8 3 9 21 10 5 5 9 13 10 6 7 14 16 15 5 7 4 4 3 4 3
19 20 19 19 17 18 18 16 16 17 17 17 18 18 19 19 20 22 15 7 7 11 15 26 30 33 29 9 8 18 10 7 7 9 8 4 15 13 8 8 10 6 5 7 9 6 7
20 21 19 18 20 18 18 17 18 19 17 16 17 17 17 17 18 12 11 2 5 19 8 14 14 16 22 30 29 34 11 6 5 8 15 16 4 15 14 8 11 13 11 7 9 6 3
22 19 19 20 22 18 20 19 18 19 16 14 16 15 14 16 12 9 7 10 15 16 5 6 4 4 11 13 9 39 31 18 6 14 9 12 8 11 11 16 13 14 10 7 5 3 5
22 24 22 22 20 20 21 16 18 19 15 13 16 13 13 12 15 14 13 12 11 3 6 1 1 1 7 9 9 1 28 25 11 7 7 8 7 11 12 10 14 10 8 10 7 6 4
23 25 23 23 21 23 20 20 22 18 14 13 15 13 13 13 13 13 11 11 7 2 7 6 3 2 5 11 6 5 7 9 15 5 1 8 3 11 13 5 16 7 3 3 3 2 6
24 25 24 22 22 23 22 21 19 14 15 13 13 12 13 13 10 11 13 10 1 4 5 7 7 7 9 5 4 5 5 13 7 10 12 5 8 3 4 8 6 5 6 3 5 4 7
26 25 24 23 24 23 23 20 17 15 15 13 13 15 16 15 13 11 6 1 8 2 6 5 8 12 2 2 4 5 5 9 9 1 7 10 6 12 5 6 6 13 12 5 7 6 5
27 25 25 25 26 25 21 19 18 17 16 12 15 17 19 15 11 9 5 4 3 6 3 8 13 5 5 7 5 2 6 2 6 8 6 8 9 4 6 5 7 6 8 6 2 2 1
28 27 26 26 26 23 22 20 19 19 15 11 16 16 22 16 8 11 5 8 5 3 4 4 2 5 6 8 9 8 1 6 6 8 3 5 2 4 3 4 4 8 10 5 1 6 8
30 29 28 27 26 24 23 22 22 18 13 10 14 7 11 4 14 9 7 6 4 17 9 2 2 4 4 5 6 8 8 2 11 9 4 3 2 2 4 5 11 6 8 1 3 3 4
29 30 29 27 27 27 27 23 21 16 13 13 9 3 8 12 8 4 3 5 8 4 3 3 2 5 4 5 5 5 6 5 15 12 3 2 2 3 5 1 3 2 5 9 4 4 1
31 29 31 29 28 26 26 25 22 18 17 11 7 10 14 16 6 8 3 4 9 6 3 1 2 0 2 2 3 2 5 6 14 9 4 4 1 3 2 2 4 2 2 3 2 3 7
32 33 30 29 28 27 28 26 23 20 21 18 7 3 13 21 21 12 9 6 7 9 7 2 3 3 1 1 0 4 6 4 16 10 11 2 2 2 2 3 2 1 6 3 3 3 5
33 33 30 31 31 30 30 29 27 24 24 20 13 5 8 3 11 16 10 8 12 8 8 9 5 10 6 3 3 4 3 5 7 13 6 4 3 1 2 2 3 2 5 4 4 6 5
35 35 34 32 29 30 29 28 25 26 28 29 9 7 7 7 10 15 11 13 18 14 11 7 8 4 11 11 11 5 0 2 4 6 8 8 3 2 2 2 2 4 8 3 4 2 6
33 32 34 36 37 38 37 35 32 28 32 25 27 20 8 11 9 6 14 16 18 14 11 16 13 10 11 12 14 19 16 14 10 6 4 4 1 3 4 1 4 3 6 4 2 2 2
38 40 40 41 39 37 36 37 37 37 38 40 22 17 12 7 9 14 13 15 15 20 13 9 15 13 3 5 17 9 11 12 13 9 11 5 4 0 1 1 5 1 3 6 3 4 8
42 42 40 37 35 34 34 35 36 39 43 47 41 18 14 7 13 13 18 15 18 16 17 18 16 14 13 8 3 4 2 1 6 10 10 12 3 2 2 3 5 8 3 5 5 5 6
35 34 34 34 35 34 35 36 36 39 48 49 44 42 17 5 15 23 10 17 9 6 4 11 17 12 6 1 3 3 2 3 2 2 1 8 6 2 2 2 4 3 1 2 3 3 3
31 32 34 36 37 37 35 32 31 30 42 48 43 44 33 12 12 25 14 12 15 13 3 4 8 7 14 4 4 4 2 2 2 4 4 5 3 8 4 4 5 8 7 2 3 1 6
33 34 33 34 33 34 34 31 31 33 40 43 42 33 44 13 6 27 28 21 13 20 6 9 6 4 5 6 3 3 3 3 3 3 5 7 7 4 5 3 7 3 2 2 7 12 13
23 23 23 23 24 25 29 31 32 32 37 40 30 41 35 25 7 24 27 32 34 34 22 21 8 6 9 3 4 3 3 1 5 3 1 4 5 4 7 5 1 6 6 9 11 15 15

GFSGBSN_850_spd_060.txt.gz
Wind_Speed
9 7 8 9 8 8 9 11 13 13 14 16 16 17 18 19 20 20 22 23 23 24 23 22 23 21 20 9 15 20 15 12 5 17 15 19 20 22 17 15 14 19 16 13 16 13 13
9 9 9 11 11 11 10 11 13 12 14 15 17 17 18 20 21 23 24 24 25 24 24 23 22 21 14 16 12 14 14 8 6 14 12 16 13 19 11 13 17 8 22 17 15 15 13
13 9 12 12 12 12 11 12 12 12 12 14 15 17 20 22 23 24 25 26 25 24 25 25 22 20 14 25 19 22 27 29 22 15 16 15 15 11 9 10 18 13 12 14 16 16 16
12 14 11 13 14 11 15 11 11 12 12 14 16 16 20 23 24 25 26 27 26 23 23 21 19 11 13 20 17 27 24 30 21 16 18 15 14 14 11 6 5 14 14 16 15 12 9
14 13 16 11 12 15 14 15 15 13 14 16 17 16 19 22 23 25 26 26 22 19 15 14 9 9 12 13 14 16 18 16 14 18 15 10 11 18 15 13 12 12 15 18 12 11 6
18 16 16 13 15 17 15 17 10 11 15 16 17 16 19 21 22 24 26 23 11 9 9 6 2 6 16 7 4 2 9 8 5 10 12 15 13 12 15 15 17 15 16 14 14 9 12
16 17 16 17 17 18 14 14 13 12 15 17 17 16 19 19 21 22 22 13 7 3 8 10 15 17 16 7 6 7 7 5 7 17 17 22 14 20 23 22 19 13 12 14 10 6 6
19 20 17 19 16 15 14 14 15 15 17 19 17 17 17 18 18 15 12 6 7 9 16 23 30 32 31 18 9 9 9 7 11 15 19 11 20 18 16 19 20 18 15 14 9 6 8
19 19 20 21 16 17 19 17 18 16 17 18 15 15 16 16 15 5 8 4 9 15 9 15 10 12 12 22 12 9 12 13 12 17 18 21 5 15 15 16 19 20 20 15 14 3 10
20 19 19 20 17 18 20 16 17 13 17 15 12 13 13 13 6 8 4 8 11 12 5 3 3 3 3 5 9 30 12 13 9 13 16 15 24 6 20 22 19 19 19 16 12 11 9
21 21 19 21 21 20 18 19 17 15 19 15 11 12 11 10 11 6 9 9 9 1 6 5 3 1 6 8 9 3 25 30 23 19 8 15 11 20 17 18 18 17 7 13 15 13 12
24 24 22 21 22 20 18 21 18 19 19 12 10 11 11 8 7 7 6 9 3 4 4 2 2 4 3 10 7 1 3 21 21 19 17 20 4 13 21 14 12 8 7 7 8 10 12
27 25 23 23 23 20 19 20 21 17 15 12 11 12 11 9 5 6 9 6 4 5 4 4 5 11 11 6 4 8 9 18 12 16 18 17 17 8 10 19 13 15 12 7 8 8 10
26 23 24 24 22 20 21 21 22 17 16 15 13 13 13 12 8 6 4 4 8 2 5 6 6 14 4 7 1 7 6 12 19 17 8 15 9 15 12 13 11 18 19 7 8 10 9
26 25 25 25 22 23 21 23 20 16 16 16 14 13 15 12 8 8 4 7 3 4 3 7 12 6 2 5 6 3 4 3 7 15 10 12 17 11 12 11 15 13 19 16 9 1 5
26 26 24 25 24 23 24 19 20 16 17 13 12 10 16 12 9 13 5 7 6 5 2 3 4 4 5 8 7 5 5 7 5 8 12 5 6 10 17 17 16 10 10 8 10 13 12
27 26 25 25 25 27 21 22 20 18 17 13 10 5 6 6 15 12 7 8 11 14 5 3 3 5 5 6 8 7 7 5 12 11 13 7 5 6 11 15 18 14 12 9 7 13 11
29 29 29 26 26 24 22 24 18 16 15 14 8 4 8 14 9 5 6 8 9 10 17 10 5 7 9 9 7 5 2 5 17 18 7 10 3 8 10 4 8 17 16 19 10 10 7
28 27 27 26 26 22 24 24 24 22 16 13 8 9 8 15 6 10 7 15 12 11 12 9 10 4 3 5 5 5 3 5 11 12 11 2 8 6 11 11 3 9 6 8 13 12 13
27 28 27 26 26 25 26 24 24 21 18 19 6 4 12 15 14 7 17 14 14 17 16 13 7 7 8 11 11 8 7 3 13 9 13 7 3 10 8 3 3 7 8 4 9 8 10
31 32 29 28 28 27 25 23 26 23 19 22 12 6 10 5 11 16 12 5 19 15 17 14 9 15 13 10 10 11 13 13 6 8 6 2 2 1 2 2 1 3 5 4 8 8 7
30 29 28 28 28 27 26 27 25 24 20 26 10 7 7 12 11 15 15 16 17 17 12 12 15 10 13 17 17 12 8 6 5 4 6 7 2 4 2 3 3 5 6 8 7 9 9
31 31 32 31 29 28 26 27 27 27 27 23 24 17 7 15 16 11 14 17 19 20 14 21 14 11 13 13 15 15 16 15 13 8 4 4 3 4 8 2 3 7 13 10 7 7 7
36 35 33 31 31 32 33 33 33 34 36 33 24 21 14 9 11 15 17 17 19 18 19 15 16 9 6 5 10 15 16 16 16 14 12 4 2 3 4 2 7 1 4 2 5 5 5
40 40 39 39 38 38 36 36 36 37 41 42 33 26 16 10 19 21 18 13 19 25 19 15 15 15 9 6 3 7 7 9 12 17 15 13 4 3 5 10 8 6 6 5 7 4 4
32 34 36 38 38 38 38 37 35 38 40 43 44 40 23 8 19 29 19 23 13 13 12 20 7 8 11 4 4 4 5 4 6 7 14 13 11 6 5 7 6 3 7 2 2 5 6
26 28 29 30 31 31 31 32 35 36 35 37 45 44 37 17 18 11 16 18 13 9 4 6 8 8 11 4 4 5 3 1 5 9 8 10 10 13 10 7 4 8 2 4 7 3 14
29 27 29 31 31 32 33 35 35 36 35 36 39 50 45 25 26 20 21 24 19 14 6 10 6 6 4 7 5 4 4 4 3 6 8 11 11 8 11 8 8 4 3 3 6 8 13
30 29 28 29 31 31 31 34 36 38 35 34 30 47 45 31 9 22 27 22 28 25 22 17 8 7 11 7 5 3 4 1 7 4 7 7 6 5 8 6 6 8 11 7 7 6 9

GFSGBSN_850_spd_063.txt.gz
Wind_Speed
11 12 11 12 12 12 12 14 15 13 12 13 15 17 17 18 19 20 21 23 23 21 23 23 23 23 21 12 27 25 23 11 8 2 14 20 26 26 23 22 23 21 22 25 19 19 16
10 11 14 14 14 14 15 14 16 15 12 12 14 16 19 20 21 22 23 24 23 22 23 23 23 21 13 22 21 18 15 8 0 1 13 18 20 22 23 26 20 23 20 24 25 19 21
12 12 14 13 17 14 13 15 14 12 12 14 15 17 18 20 23 24 25 25 24 23 23 23 22 17 16 36 15 13 17 17 11 6 14 16 18 16 21 18 22 21 21 17 20 22 20
15 14 14 15 14 14 16 16 17 16 15 16 17 17 18 20 23 24 25 25 23 22 21 19 16 8 14 17 18 22 23 18 18 11 13 17 16 19 22 18 15 16 20 18 19 19 20
15 17 14 14 16 14 17 19 18 16 13 17 18 18 18 20 23 24 25 23 19 18 16 13 4 8 16 9 11 13 20 20 17 13 17 17 17 20 19 16 15 18 16 22 20 17 14
18 17 18 15 16 16 18 24 16 15 12 16 20 19 19 20 22 22 24 17 13 12 9 5 7 6 12 11 6 5 6 13 11 12 18 19 16 16 15 14 16 17 18 19 18 14 15
17 16 17 18 17 19 17 14 14 15 16 19 21 22 20 20 20 18 21 21 5 5 8 16 16 17 22 9 11 9 8 6 12 18 17 19 15 21 22 20 21 24 19 16 12 12 11
19 18 17 18 17 19 14 18 18 18 18 17 21 20 18 19 17 11 14 9 7 8 16 18 22 24 27 23 14 11 8 14 9 15 16 17 22 20 21 19 21 26 24 16 15 5 5
19 21 21 18 18 18 14 20 21 20 21 18 18 18 15 16 14 6 9 6 9 12 9 12 7 7 6 9 20 15 13 17 7 12 18 19 16 22 18 18 22 24 23 19 18 9 8
20 19 18 19 19 18 19 19 19 19 21 15 18 15 14 12 8 7 5 8 9 11 5 6 3 2 1 2 6 23 13 13 10 12 17 17 27 8 17 21 20 22 18 19 17 15 13
21 20 21 19 20 18 19 21 20 19 18 18 19 14 12 9 9 6 8 10 10 5 5 5 5 0 1 7 8 1 26 12 14 12 4 14 12 18 20 18 20 24 16 15 16 18 17
21 23 23 22 22 22 19 19 21 20 18 20 15 13 10 7 8 8 10 11 6 5 5 5 2 3 7 9 7 2 8 23 9 10 20 21 29 16 16 19 19 15 15 16 11 14 15
23 23 23 24 21 21 21 18 20 19 19 17 13 14 12 9 9 6 9 7 6 7 6 4 1 5 11 9 5 9 8 17 12 8 17 21 22 24 13 15 22 19 12 9 11 12 15
27 26 24 23 20 20 21 21 20 20 19 18 15 16 13 12 11 8 6 6 10 3 3 2 4 12 10 7 2 8 8 10 19 20 8 16 14 23 15 15 16 19 18 10 12 10 13
21 24 22 22 21 22 20 22 19 18 17 17 16 14 14 13 12 11 9 10 5 7 4 4 10 11 6 2 5 3 10 3 9 18 16 10 20 12 20 14 15 17 20 21 18 10 7
22 23 23 24 24 21 21 21 22 19 16 13 12 13 17 13 13 14 8 14 11 5 4 5 7 2 5 3 7 6 9 7 4 5 14 16 17 14 17 15 20 21 10 17 13 11 11
23 24 22 22 21 20 20 23 20 19 19 13 11 6 7 14 17 13 9 15 11 8 6 6 8 7 10 8 6 7 3 4 9 9 11 15 9 6 11 17 19 17 17 12 15 14 9
23 23 24 25 24 24 24 21 21 21 16 10 13 4 9 16 14 11 11 13 8 11 13 13 8 11 11 11 11 8 4 6 9 14 11 16 6 12 15 19 22 22 20 18 9 5 13
23 25 24 23 22 22 23 22 20 20 16 10 11 14 9 16 8 11 13 19 21 13 14 10 13 13 14 11 7 10 7 3 5 12 10 11 10 10 14 10 8 13 19 19 17 14 13
24 24 23 24 25 22 21 19 20 22 22 18 8 5 18 15 18 12 16 15 17 16 18 17 12 13 14 14 14 10 11 2 6 6 13 7 11 13 13 13 10 13 11 10 11 9 14
27 27 27 27 25 25 22 21 21 23 23 25 16 7 8 7 15 17 15 7 20 17 16 19 14 18 14 15 15 17 18 14 14 3 8 3 5 12 9 3 9 7 15 14 13 15 11
28 28 28 27 26 23 24 23 24 25 26 29 10 8 13 18 15 18 19 17 18 15 17 17 16 17 18 19 16 15 12 12 10 4 6 5 3 6 9 4 4 5 8 10 11 13 13
29 29 29 28 26 25 26 24 26 25 26 19 24 15 10 9 15 11 13 19 18 17 15 21 15 16 13 12 10 11 17 16 12 13 8 9 8 4 3 7 2 5 13 11 11 13 13
30 30 31 31 31 29 28 28 26 29 33 31 15 18 11 10 12 14 18 17 18 16 18 21 18 16 8 4 8 14 18 18 19 18 16 12 9 8 3 5 3 1 2 12 14 9 6
34 36 37 37 36 32 30 30 30 31 32 31 26 21 22 11 18 17 17 14 17 19 18 17 18 7 3 3 6 9 9 11 18 19 18 15 12 5 5 7 7 3 5 6 6 4 2
33 32 35 33 34 37 35 34 34 33 34 35 36 30 22 15 17 26 19 21 12 11 12 18 3 5 5 2 4 7 7 12 10 8 20 16 13 9 5 7 5 6 7 2 4 7 7
32 29 26 22 27 30 35 37 37 37 37 37 38 39 32 20 26 17 15 14 20 17 6 8 7 4 6 3 5 7 10 5 6 11 20 14 12 14 11 8 6 4 5 1 11 4 8
33 31 29 26 24 27 27 30 33 36 38 38 42 45 44 15 31 20 24 17 14 13 9 2 5 4 3 4 5 7 5 4 4 8 17 14 11 9 13 12 14 5 4 8 8 10 9
35 34 31 29 25 24 29 30 32 33 34 37 36 36 38 31 18 28 29 24 17 16 8 6 5 5 13 6 6 2 4 1 10 4 11 9 12 7 10 10 7 9 13 10 8 9 11

GFSGBSN_850_spd_066.txt.gz
Wind_Speed
11 10 12 10 10 14 14 15 16 16 15 15 15 17 18 20 22 23 23 23 22 21 21 24 23 22 22 11 28 24 28 16 14 8 8 15 21 27 24 23 26 26 25 31 31 29 23
13 11 12 13 12 13 12 13 16 16 12 13 14 19 22 23 23 25 25 25 23 22 22 23 23 22 14 19 11 11 12 10 10 9 8 13 16 24 27 26 23 30 29 28 30 29 22
12 14 12 14 14 15 13 13 14 18 19 18 17 18 22 24 25 25 26 25 23 23 23 24 21 17 17 34 15 21 15 13 12 11 10 13 15 21 21 24 28 31 25 22 23 23 24
14 14 14 16 16 15 13 16 17 18 19 17 19 20 22 22 25 26 26 25 23 22 23 20 14 8 13 13 17 17 14 18 20 18 14 12 13 15 18 20 23 21 19 20 21 21 21
16 16 16 17 16 16 15 17 20 22 18 15 18 21 22 23 25 24 26 24 17 16 18 14 8 8 13 9 7 8 10 16 16 17 17 10 9 14 16 13 13 14 16 21 23 22 21
16 17 16 16 17 15 17 19 18 14 16 17 21 23 24 24 23 24 23 21 11 16 9 9 11 11 13 3 7 10 8 8 15 11 14 15 7 11 13 13 15 15 19 20 20 20 22
18 18 16 16 18 19 18 17 14 16 18 20 22 23 23 21 19 18 19 25 17 2 9 18 13 18 32 20 21 14 9 5 10 11 13 16 6 16 20 17 21 15 18 24 23 20 16
19 17 20 19 18 16 18 21 16 19 23 24 25 22 22 19 16 9 11 12 9 9 17 22 28 24 24 17 13 14 9 8 8 13 10 9 17 20 20 18 20 20 19 23 25 16 1
16 18 17 18 21 19 17 17 17 19 19 19 21 19 20 15 12 5 10 9 12 14 8 17 11 12 4 5 10 18 13 13 12 9 12 15 14 13 19 22 21 19 20 20 23 20 14
20 18 16 17 16 18 17 19 18 22 20 21 18 20 18 14 9 8 8 8 12 15 5 8 11 6 7 2 4 11 16 13 4 9 8 11 18 17 19 23 19 19 19 23 23 19 12
17 20 19 18 19 19 20 19 18 19 19 19 21 20 14 9 12 8 6 13 11 9 6 8 9 6 6 6 5 6 16 15 12 8 3 4 10 18 17 23 18 17 12 19 22 17 16
20 21 19 20 21 22 26 25 20 18 21 19 20 19 12 5 9 8 11 11 10 3 7 7 6 5 12 15 10 6 6 14 8 9 14 16 10 10 22 23 19 18 6 24 21 14 14
21 24 24 21 18 19 18 18 19 19 19 17 19 20 16 11 14 10 9 12 5 7 5 8 4 3 7 11 7 13 9 16 10 6 12 15 19 22 20 16 16 18 13 8 7 12 11
19 20 21 24 22 21 19 16 19 21 20 16 17 18 18 15 12 10 8 5 10 9 13 6 3 8 13 10 6 10 12 10 18 14 7 2 5 18 10 15 14 13 16 8 6 4 14
22 19 17 19 21 19 19 20 19 18 17 15 17 17 17 15 8 10 12 10 6 15 8 4 8 12 12 6 4 6 13 12 12 18 13 4 6 12 14 13 17 18 20 25 17 12 8
21 22 21 21 19 20 20 18 16 19 18 15 13 16 21 16 17 15 7 16 16 15 3 7 10 6 8 1 3 6 1 9 3 4 12 9 11 14 16 17 18 17 13 12 6 4 6
22 21 20 21 19 18 16 15 16 17 17 15 13 10 14 15 19 15 10 14 17 23 11 5 10 13 7 9 6 9 2 7 5 6 9 11 12 7 13 15 17 14 15 12 12 11 4
24 21 20 20 19 21 20 20 19 17 15 16 10 4 6 20 13 10 10 17 26 16 15 13 9 12 12 10 11 10 14 3 6 7 8 8 7 10 14 8 4 14 17 15 6 13 12
21 21 21 19 19 20 18 17 18 16 16 13 7 18 21 14 8 12 15 21 23 19 16 13 11 11 14 11 8 10 13 6 9 6 9 11 5 9 6 9 8 14 17 19 13 4 4
22 21 19 20 19 20 21 19 15 16 16 16 8 3 19 16 17 15 17 18 19 22 20 23 16 16 14 14 13 10 10 3 3 8 14 12 9 11 9 7 5 11 16 19 18 7 7
25 24 23 23 21 22 21 19 19 19 18 17 8 7 7 6 14 16 18 10 18 18 20 16 16 20 13 13 14 14 15 14 16 6 4 3 7 9 14 16 17 21 14 14 12 14 5
25 24 23 23 24 22 20 21 20 18 18 22 9 8 16 15 20 14 17 18 19 16 18 14 15 16 14 16 15 14 14 11 8 10 7 3 3 11 6 12 11 16 12 13 21 20 12
24 24 24 25 23 24 22 22 21 22 22 20 22 27 16 10 11 12 8 19 21 16 19 15 14 15 14 10 8 13 11 12 8 9 6 4 5 5 4 12 11 10 11 16 13 12 12
26 26 26 25 25 25 26 25 24 23 26 29 20 17 10 11 12 12 17 12 15 15 17 17 15 11 15 1 7 9 13 16 17 15 15 12 4 4 4 4 4 4 3 14 6 4 6
28 28 28 29 31 33 31 31 28 25 28 32 26 25 7 9 14 17 17 14 16 17 13 17 14 10 3 5 3 6 10 14 20 20 18 14 10 3 4 4 4 5 4 6 13 5 11
29 30 29 28 31 34 36 35 33 28 29 32 33 25 15 6 13 22 18 17 10 10 10 16 3 0 3 2 2 4 8 10 8 7 23 18 14 9 5 5 3 2 11 9 6 7 10
31 30 28 28 29 25 23 31 35 31 30 31 26 28 21 6 23 19 13 12 15 12 7 7 4 2 1 2 1 7 12 14 5 15 12 16 14 15 10 6 7 5 3 2 8 5 10
30 29 30 30 28 25 23 28 34 35 33 33 34 28 26 21 28 22 22 22 20 16 5 1 4 3 2 3 4 6 5 6 5 7 11 15 11 8 11 8 12 6 1 3 12 14 13
30 31 33 32 30 27 25 24 29 34 36 35 36 32 30 22 17 13 31 30 20 17 5 4 2 3 6 5 5 4 4 3 7 4 3 8 12 7 10 9 7 15 20 18 18 16 12

GFSGBSN_850_spd_069.txt.gz
Wind_Speed
10 10 10 11 13 13 13 14 14 14 15 14 14 15 19 21 23 23 22 22 22 21 21 24 24 24 23 7 26 17 10 12 14 10 9 9 14 17 10 9 20 18 19 29 33 35 35
12 12 11 13 14 14 16 15 16 16 17 19 18 19 21 23 24 23 23 22 22 21 21 22 23 22 17 10 6 4 12 4 11 12 17 13 14 20 19 16 16 21 21 23 29 29 29
13 10 14 13 15 16 16 15 17 18 20 21 19 17 20 22 25 25 24 24 23 22 20 18 18 17 17 34 14 14 13 13 8 12 11 12 14 13 14 8 21 24 17 16 18 21 18
13 13 13 15 16 16 16 17 18 20 25 19 20 21 22 24 25 23 23 23 22 18 14 12 15 10 13 11 9 13 5 13 13 14 15 16 16 16 11 11 10 7 8 12 10 12 17
13 12 14 16 18 18 15 17 18 20 17 17 19 22 25 26 23 22 23 22 18 13 13 11 11 7 13 7 11 4 7 12 11 15 17 13 13 10 9 3 4 5 5 9 12 12 14
15 15 16 15 14 16 17 18 19 16 17 18 22 25 29 27 21 19 18 19 14 9 7 6 3 6 14 6 4 11 6 8 7 8 4 11 6 4 2 1 4 6 5 8 11 17 13
16 16 16 17 16 15 17 14 19 20 19 21 24 25 26 24 17 14 17 21 21 5 7 10 11 15 18 16 22 21 14 7 6 11 5 8 4 6 6 8 12 16 15 13 11 12 13
15 14 16 17 18 19 20 16 17 15 18 21 23 22 23 23 13 7 13 16 13 10 17 27 33 38 40 32 16 13 12 8 9 6 5 4 7 7 9 12 16 18 18 17 16 16 12
15 15 16 16 14 15 17 17 18 17 20 20 21 23 22 18 8 3 10 12 15 20 6 24 14 16 15 14 16 14 12 9 5 6 5 7 6 10 13 10 17 18 15 16 15 19 21
18 19 19 16 16 17 17 16 18 18 19 19 19 22 24 15 6 5 4 9 15 18 4 7 6 9 12 6 5 11 14 7 4 3 1 3 5 11 13 17 13 13 17 13 15 12 11
17 17 17 17 16 17 18 20 21 20 20 18 18 20 21 10 10 9 12 14 12 11 5 9 8 14 12 9 6 6 16 10 4 6 4 4 5 10 14 17 9 9 16 9 9 10 12
16 19 19 19 18 17 18 21 19 19 19 20 15 17 20 5 6 7 13 12 11 1 8 6 9 10 11 13 6 9 10 8 6 6 7 6 7 3 11 10 9 14 13 10 8 3 5
20 19 19 17 20 21 18 20 17 16 16 19 17 17 17 14 16 6 9 11 2 5 11 7 6 7 10 6 12 7 6 6 5 3 5 7 16 8 8 8 11 10 3 2 2 4 3
15 15 18 18 14 16 18 16 15 17 19 18 18 18 19 17 12 1 10 3 8 10 11 2 2 2 6 10 3 12 11 6 9 5 3 4 4 11 12 14 8 12 10 3 6 3 2
15 17 15 14 17 16 17 18 16 16 15 16 18 18 21 7 2 6 6 7 5 6 9 9 6 1 5 13 5 7 12 7 10 12 5 3 5 7 10 8 10 5 7 16 6 6 1
16 17 19 19 17 17 17 15 14 14 13 15 18 21 25 13 9 12 5 14 11 13 17 14 5 5 6 4 4 2 2 1 3 5 5 4 8 7 11 16 14 7 3 4 4 3 4
18 20 17 18 16 17 16 15 12 12 12 13 14 9 20 4 18 15 8 8 13 27 25 9 7 9 11 9 6 4 5 5 6 5 4 3 3 7 5 8 11 7 5 5 3 7 2
23 20 18 17 16 17 16 17 15 14 13 13 11 3 6 11 11 5 10 6 11 25 31 18 9 6 10 12 5 6 5 6 5 2 2 4 4 5 11 9 3 4 11 12 2 1 4
14 15 19 18 18 16 16 14 13 13 12 9 6 12 21 13 6 10 7 13 21 21 20 13 9 5 7 9 5 4 5 11 12 3 4 1 3 4 7 3 5 7 17 10 11 6 4
18 18 17 18 18 16 17 16 14 12 14 13 5 3 7 18 18 6 10 16 17 25 20 23 15 15 12 8 6 5 6 3 6 5 9 4 3 5 5 9 4 6 9 14 14 3 3
20 19 20 20 19 17 17 18 16 13 12 13 7 5 7 3 3 6 13 10 6 13 17 18 12 13 15 10 6 6 8 5 5 15 4 3 2 3 10 14 15 12 10 13 15 15 4
20 19 20 21 20 20 18 17 17 16 15 18 7 4 8 12 10 9 15 16 17 15 4 10 11 11 10 11 7 3 5 5 5 6 3 3 3 3 7 7 11 11 13 9 11 11 16
21 22 21 20 20 20 20 20 19 18 19 16 17 22 12 8 7 2 5 8 15 12 13 19 7 8 7 7 5 3 4 5 2 2 1 2 4 4 3 6 9 5 7 11 9 11 8
26 24 23 22 22 21 20 19 21 21 22 26 19 12 7 8 8 9 13 14 8 15 10 18 9 7 6 12 11 5 6 8 9 6 9 5 1 2 4 5 3 4 17 8 9 6 7
23 22 24 25 23 23 24 25 24 25 25 27 26 20 6 7 10 15 13 11 11 9 17 11 14 1 6 8 3 3 3 2 7 15 11 8 5 1 2 3 10 11 6 3 13 4 5
24 27 26 25 25 26 26 27 30 32 28 26 28 25 14 4 11 20 12 14 7 5 5 7 5 2 3 3 2 1 3 2 3 3 15 12 6 4 3 3 3 3 13 3 6 4 4
27 26 27 27 26 25 23 25 24 30 32 28 27 26 23 9 15 24 6 6 8 7 4 7 4 4 6 2 2 2 3 4 4 2 4 7 6 13 7 4 6 7 7 12 2 3 10
27 29 28 27 25 24 23 22 20 22 32 29 30 24 24 13 22 20 16 17 14 12 3 8 2 0 2 1 2 4 3 4 3 8 4 9 8 7 5 5 8 7 2 4 7 20 21
29 27 26 26 26 25 25 22 21 20 32 29 30 27 25 17 10 9 17 28 27 24 17 6 8 2 2 2 2 2 2 3 3 2 5 2 3 5 10 6 3 13 21 22 25 25 23